Time,TemperatureF,DewpointF,PressureIn,WindDirection,WindDirectionDegrees,WindSpeedMPH,WindSpeedGustMPH,Humidity,HourlyPrecipIn,Conditions,Clouds,dailyrainin,SolarRadiationWatts/m^2,SoftwareType,DateUTC
2013-05-11 00:03:00,52.1,47.7,29.94,NW,313,0.0,0.0,85,0.00,,,0.00,0,Wunderground v.1.15,2013-05-11 05:03:00,
2013-05-11 00:05:00,52.0,47.6,29.94,NW,313,0.0,0.0,85,0.00,,,0.00,0,Wunderground v.1.15,2013-05-11 05:05:00,
2013-05-11 00:06:00,51.9,47.5,29.94,NW,313,0.0,0.0,85,0.00,,,0.00,0,Wunderground v.1.15,2013-05-11 05:06:00,
2013-05-11 00:08:00,51.8,47.4,29.94,NW,313,0.0,0.0,85,0.00,,,0.00,0,Wunderground v.1.15,2013-05-11 05:08:00,
2013-05-11 00:10:00,51.7,47.3,29.94,NW,313,0.0,0.0,85,0.00,,,0.00,0,Wunderground v.1.15,2013-05-11 05:10:00,
2013-05-11 00:11:00,51.7,47.3,29.94,NW,313,0.0,0.0,85,0.00,,,0.00,0,Wunderground v.1.15,2013-05-11 05:11:00,
2013-05-11 00:12:00,51.7,47.3,29.94,NW,313,0.0,0.0,85,0.00,,,0.00,0,Wunderground v.1.15,2013-05-11 05:12:00,
2013-05-11 00:17:00,51.7,47.3,29.94,NW,313,0.0,0.0,85,0.00,,,0.00,0,Wunderground v.1.15,2013-05-11 05:17:00,
2013-05-11 00:19:00,51.8,47.4,29.94,NW,313,0.0,0.0,85,0.00,,,0.00,0,Wunderground v.1.15,2013-05-11 05:19:00,
2013-05-11 00:20:00,51.8,47.4,29.93,NW,313,0.0,0.0,85,0.00,,,0.00,0,Wunderground v.1.15,2013-05-11 05:20:00,
2013-05-11 00:21:00,51.7,47.3,29.94,NW,313,0.0,0.0,85,0.00,,,0.00,0,Wunderground v.1.15,2013-05-11 05:21:00,
2013-05-11 00:22:00,51.7,47.0,29.93,NW,313,0.0,0.0,84,0.00,,,0.00,0,Wunderground v.1.15,2013-05-11 05:22:00,
2013-05-11 00:24:00,51.4,47.0,29.94,NW,313,0.0,0.0,85,0.00,,,0.00,0,Wunderground v.1.15,2013-05-11 05:24:00,
2013-05-11 00:25:00,51.2,46.8,29.93,NW,313,0.0,0.0,85,0.00,,,0.00,0,Wunderground v.1.15,2013-05-11 05:25:00,
2013-05-11 00:30:00,50.8,47.1,29.93,NW,313,0.0,0.0,87,0.00,,,0.00,0,Wunderground v.1.15,2013-05-11 05:30:00,
2013-05-11 00:31:00,50.9,47.2,29.93,NW,313,0.0,0.0,87,0.00,,,0.00,0,Wunderground v.1.15,2013-05-11 05:31:00,
2013-05-11 00:32:00,50.9,47.2,29.93,NW,313,0.0,0.0,87,0.00,,,0.00,0,Wunderground v.1.15,2013-05-11 05:32:00,
2013-05-11 00:35:00,51.0,47.3,29.93,NW,313,0.0,0.0,87,0.00,,,0.00,0,Wunderground v.1.15,2013-05-11 05:35:00,
2013-05-11 00:36:00,51.0,47.0,29.93,NW,313,0.0,0.0,86,0.00,,,0.00,0,Wunderground v.1.15,2013-05-11 05:36:00,
2013-05-11 00:38:00,51.0,47.3,29.93,NW,313,0.0,0.0,87,0.00,,,0.00,0,Wunderground v.1.15,2013-05-11 05:38:00,
2013-05-11 00:39:00,51.0,47.3,29.93,NW,313,0.0,0.0,87,0.00,,,0.00,0,Wunderground v.1.15,2013-05-11 05:39:00,
2013-05-11 00:42:00,51.0,47.0,29.93,NW,313,0.0,0.0,86,0.00,,,0.00,0,Wunderground v.1.15,2013-05-11 05:42:00,
2013-05-11 00:43:00,50.9,46.9,29.93,NW,313,0.0,0.0,86,0.00,,,0.00,0,Wunderground v.1.15,2013-05-11 05:43:00,
2013-05-11 00:44:00,50.8,46.8,29.93,NW,313,0.0,0.0,86,0.00,,,0.00,0,Wunderground v.1.15,2013-05-11 05:44:00,
2013-05-11 00:47:00,50.7,47.0,29.93,NW,313,0.0,0.0,87,0.00,,,0.00,0,Wunderground v.1.15,2013-05-11 05:47:00,
2013-05-11 00:49:00,50.5,46.8,29.93,NW,313,0.0,0.0,87,0.00,,,0.00,0,Wunderground v.1.15,2013-05-11 05:49:00,
2013-05-11 00:50:00,50.5,46.8,29.93,NW,313,0.0,0.0,87,0.00,,,0.00,0,Wunderground v.1.15,2013-05-11 05:50:00,
2013-05-11 00:54:00,50.6,46.9,29.93,NW,313,0.0,0.0,87,0.00,,,0.00,0,Wunderground v.1.15,2013-05-11 05:54:00,
2013-05-11 00:55:00,50.6,46.9,29.93,NW,313,0.0,0.0,87,0.00,,,0.00,0,Wunderground v.1.15,2013-05-11 05:55:00,
2013-05-11 00:56:00,50.6,46.9,29.93,NW,313,0.0,0.0,87,0.00,,,0.00,0,Wunderground v.1.15,2013-05-11 05:56:00,
2013-05-11 00:59:00,50.6,46.9,29.93,NW,313,0.0,0.0,87,0.00,,,0.00,0,Wunderground v.1.15,2013-05-11 05:59:00,
2013-05-11 01:02:00,50.4,46.7,29.93,NW,313,0.0,0.0,87,0.00,,,0.00,0,Wunderground v.1.15,2013-05-11 06:02:00,
2013-05-11 01:04:00,50.2,46.5,29.93,NW,313,0.0,0.0,87,0.00,,,0.00,0,Wunderground v.1.15,2013-05-11 06:04:00,
2013-05-11 01:09:00,49.7,46.3,29.93,NW,313,0.0,0.0,88,0.00,,,0.00,0,Wunderground v.1.15,2013-05-11 06:09:00,
2013-05-11 01:10:00,49.6,46.2,29.92,NW,313,0.0,0.0,88,0.00,,,0.00,0,Wunderground v.1.15,2013-05-11 06:10:00,
2013-05-11 01:11:00,49.5,46.1,29.92,NW,313,0.0,0.0,88,0.00,,,0.00,0,Wunderground v.1.15,2013-05-11 06:11:00,
2013-05-11 01:12:00,49.5,46.1,29.92,NW,313,0.0,0.0,88,0.00,,,0.00,0,Wunderground v.1.15,2013-05-11 06:12:00,
2013-05-11 01:15:00,49.3,46.2,29.92,NW,313,1.0,2.0,89,0.00,,,0.00,0,Wunderground v.1.15,2013-05-11 06:15:00,
2013-05-11 01:16:00,49.3,46.2,29.92,NW,305,3.0,3.0,89,0.00,,,0.00,0,Wunderground v.1.15,2013-05-11 06:16:00,
2013-05-11 01:18:00,49.4,46.3,29.92,West,281,2.0,3.0,89,0.00,,,0.00,0,Wunderground v.1.15,2013-05-11 06:18:00,
2013-05-11 01:22:00,49.8,46.7,29.92,West,280,2.0,2.0,89,0.00,,,0.00,0,Wunderground v.1.15,2013-05-11 06:22:00,
2013-05-11 01:23:00,49.9,46.5,29.92,West,280,1.0,2.0,88,0.00,,,0.00,0,Wunderground v.1.15,2013-05-11 06:23:00,
2013-05-11 01:24:00,50.0,46.6,29.92,West,280,2.0,2.0,88,0.00,,,0.00,0,Wunderground v.1.15,2013-05-11 06:24:00,
2013-05-11 01:27:00,50.2,46.5,29.92,West,280,1.0,2.0,87,0.00,,,0.00,0,Wunderground v.1.15,2013-05-11 06:27:00,
2013-05-11 01:29:00,50.3,46.6,29.92,West,280,0.0,2.0,87,0.00,,,0.00,0,Wunderground v.1.15,2013-05-11 06:29:00,
2013-05-11 01:31:00,50.3,46.6,29.92,West,280,0.0,2.0,87,0.00,,,0.00,0,Wunderground v.1.15,2013-05-11 06:31:00,
2013-05-11 01:32:00,50.3,46.6,29.92,West,280,0.0,2.0,87,0.00,,,0.00,0,Wunderground v.1.15,2013-05-11 06:32:00,
2013-05-11 01:33:00,50.3,46.6,29.92,West,280,0.0,2.0,87,0.00,,,0.00,0,Wunderground v.1.15,2013-05-11 06:33:00,
2013-05-11 01:39:00,50.0,46.6,29.92,West,280,0.0,2.0,88,0.00,,,0.00,0,Wunderground v.1.15,2013-05-11 06:39:00,
2013-05-11 01:41:00,50.0,46.6,29.92,West,280,0.0,1.0,88,0.00,,,0.00,0,Wunderground v.1.15,2013-05-11 06:41:00,
2013-05-11 01:44:00,50.0,46.6,29.92,West,280,0.0,1.0,88,0.00,,,0.00,0,Wunderground v.1.15,2013-05-11 06:44:00,
2013-05-11 01:45:00,49.9,46.5,29.92,West,280,0.0,1.0,88,0.00,,,0.00,0,Wunderground v.1.15,2013-05-11 06:45:00,
2013-05-11 01:48:00,50.0,46.6,29.92,West,280,0.0,1.0,88,0.00,,,0.00,0,Wunderground v.1.15,2013-05-11 06:48:00,
2013-05-11 01:49:00,50.0,46.6,29.92,West,280,0.0,1.0,88,0.00,,,0.00,0,Wunderground v.1.15,2013-05-11 06:49:00,
2013-05-11 01:52:00,50.1,46.7,29.92,West,280,0.0,0.0,88,0.00,,,0.00,0,Wunderground v.1.15,2013-05-11 06:52:00,
2013-05-11 01:53:00,50.1,46.7,29.92,West,280,2.0,2.0,88,0.00,,,0.00,0,Wunderground v.1.15,2013-05-11 06:53:00,
2013-05-11 01:57:00,50.3,46.9,29.92,West,278,4.0,4.0,88,0.00,,,0.00,0,Wunderground v.1.15,2013-05-11 06:57:00,
2013-05-11 01:58:00,50.4,47.0,29.92,West,275,4.0,4.0,88,0.00,,,0.00,0,Wunderground v.1.15,2013-05-11 06:58:00,
2013-05-11 02:02:00,50.6,46.9,29.91,West,273,3.0,4.0,87,0.00,,,0.00,0,Wunderground v.1.15,2013-05-11 07:02:00,
2013-05-11 02:03:00,50.6,46.9,29.91,West,273,4.0,4.0,87,0.00,,,0.00,0,Wunderground v.1.15,2013-05-11 07:03:00,
2013-05-11 02:04:00,50.6,46.9,29.91,West,273,3.0,4.0,87,0.00,,,0.00,0,Wunderground v.1.15,2013-05-11 07:04:00,
2013-05-11 02:07:00,50.7,47.0,29.91,West,273,2.0,4.0,87,0.00,,,0.00,0,Wunderground v.1.15,2013-05-11 07:07:00,
2013-05-11 02:08:00,50.7,47.0,29.91,West,273,3.0,4.0,87,0.00,,,0.00,0,Wunderground v.1.15,2013-05-11 07:08:00,
2013-05-11 02:09:00,50.7,47.0,29.91,West,273,2.0,4.0,87,0.00,,,0.00,0,Wunderground v.1.15,2013-05-11 07:09:00,
2013-05-11 02:10:00,50.7,46.7,29.91,West,273,3.0,3.0,86,0.00,,,0.00,0,Wunderground v.1.15,2013-05-11 07:10:00,
2013-05-11 02:12:00,50.6,46.9,29.91,West,273,1.0,3.0,87,0.00,,,0.00,0,Wunderground v.1.15,2013-05-11 07:12:00,
2013-05-11 02:15:00,50.5,46.8,29.91,West,273,1.0,3.0,87,0.00,,,0.00,0,Wunderground v.1.15,2013-05-11 07:15:00,
2013-05-11 02:16:00,50.6,46.9,29.91,West,273,1.0,3.0,87,0.00,,,0.00,0,Wunderground v.1.15,2013-05-11 07:16:00,
2013-05-11 02:17:00,50.5,46.8,29.91,West,273,2.0,3.0,87,0.00,,,0.00,0,Wunderground v.1.15,2013-05-11 07:17:00,
2013-05-11 02:18:00,50.4,46.7,29.91,West,273,1.0,3.0,87,0.00,,,0.00,0,Wunderground v.1.15,2013-05-11 07:18:00,
2013-05-11 02:21:00,50.4,46.7,29.91,West,273,1.0,2.0,87,0.00,,,0.00,0,Wunderground v.1.15,2013-05-11 07:21:00,
2013-05-11 02:22:00,50.3,46.6,29.91,West,273,1.0,2.0,87,0.00,,,0.00,0,Wunderground v.1.15,2013-05-11 07:22:00,
2013-05-11 02:23:00,50.3,46.6,29.91,West,273,0.0,2.0,87,0.00,,,0.00,0,Wunderground v.1.15,2013-05-11 07:23:00,
2013-05-11 02:27:00,49.9,46.5,29.91,West,273,0.0,2.0,88,0.00,,,0.00,0,Wunderground v.1.15,2013-05-11 07:27:00,
2013-05-11 02:28:00,49.9,46.5,29.91,West,273,0.0,2.0,88,0.00,,,0.00,0,Wunderground v.1.15,2013-05-11 07:28:00,
2013-05-11 02:29:00,49.8,46.4,29.91,West,273,1.0,2.0,88,0.00,,,0.00,0,Wunderground v.1.15,2013-05-11 07:29:00,
2013-05-11 02:30:00,49.8,46.4,29.91,West,273,1.0,1.0,88,0.00,,,0.00,0,Wunderground v.1.15,2013-05-11 07:30:00,
2013-05-11 02:34:00,49.6,46.2,29.91,West,273,1.0,2.0,88,0.00,,,0.00,0,Wunderground v.1.15,2013-05-11 07:34:00,
2013-05-11 02:35:00,49.7,46.6,29.91,West,273,1.0,2.0,89,0.00,,,0.00,0,Wunderground v.1.15,2013-05-11 07:35:00,
2013-05-11 02:36:00,49.7,46.6,29.91,West,273,2.0,2.0,89,0.00,,,0.00,0,Wunderground v.1.15,2013-05-11 07:36:00,
2013-05-11 02:40:00,49.9,46.8,29.91,West,273,3.0,3.0,89,0.00,,,0.00,0,Wunderground v.1.15,2013-05-11 07:40:00,
2013-05-11 02:41:00,49.9,46.8,29.91,West,273,5.0,5.0,89,0.00,,,0.00,0,Wunderground v.1.15,2013-05-11 07:41:00,
2013-05-11 02:42:00,50.0,46.9,29.91,West,273,4.0,5.0,89,0.00,,,0.00,0,Wunderground v.1.15,2013-05-11 07:42:00,
2013-05-11 02:45:00,50.3,46.9,29.91,West,273,3.0,5.0,88,0.00,,,0.00,0,Wunderground v.1.15,2013-05-11 07:45:00,
2013-05-11 02:46:00,50.4,47.0,29.91,West,273,3.0,5.0,88,0.00,,,0.00,0,Wunderground v.1.15,2013-05-11 07:46:00,
2013-05-11 02:47:00,50.5,47.1,29.90,West,273,3.0,5.0,88,0.00,,,0.00,0,Wunderground v.1.15,2013-05-11 07:47:00,
2013-05-11 02:48:00,50.6,47.2,29.90,West,273,4.0,5.0,88,0.00,,,0.00,0,Wunderground v.1.15,2013-05-11 07:48:00,
2013-05-11 02:50:00,50.6,46.9,29.91,West,273,5.0,5.0,87,0.00,,,0.00,0,Wunderground v.1.15,2013-05-11 07:50:00,
2013-05-11 02:52:00,50.6,46.9,29.91,West,272,4.0,5.0,87,0.00,,,0.00,0,Wunderground v.1.15,2013-05-11 07:52:00,
2013-05-11 02:55:00,50.7,47.0,29.91,West,278,5.0,5.0,87,0.00,,,0.00,0,Wunderground v.1.15,2013-05-11 07:55:00,
2013-05-11 02:57:00,50.8,47.1,29.91,West,274,4.0,5.0,87,0.00,,,0.00,0,Wunderground v.1.15,2013-05-11 07:57:00,
2013-05-11 02:58:00,50.8,47.1,29.91,West,273,6.0,6.0,87,0.00,,,0.00,0,Wunderground v.1.15,2013-05-11 07:58:00,
2013-05-11 02:59:00,50.8,47.1,29.91,West,272,6.0,6.0,87,0.00,,,0.00,0,Wunderground v.1.15,2013-05-11 07:59:00,
2013-05-11 03:00:00,50.8,47.1,29.91,West,269,5.0,6.0,87,0.00,,,0.00,0,Wunderground v.1.15,2013-05-11 08:00:00,
2013-05-11 03:03:00,50.9,47.2,29.91,West,270,5.0,7.0,87,0.00,,,0.00,0,Wunderground v.1.15,2013-05-11 08:03:00,
2013-05-11 03:04:00,50.9,47.2,29.91,West,267,6.0,7.0,87,0.00,,,0.00,0,Wunderground v.1.15,2013-05-11 08:04:00,
2013-05-11 03:05:00,50.9,47.2,29.91,West,269,5.0,7.0,87,0.00,,,0.00,0,Wunderground v.1.15,2013-05-11 08:05:00,
2013-05-11 03:07:00,51.0,47.3,29.91,West,269,5.0,7.0,87,0.00,,,0.00,0,Wunderground v.1.15,2013-05-11 08:07:00,
2013-05-11 03:08:00,51.0,47.3,29.91,West,276,6.0,7.0,87,0.00,,,0.00,0,Wunderground v.1.15,2013-05-11 08:08:00,
2013-05-11 03:10:00,51.0,47.3,29.91,West,271,7.0,7.0,87,0.00,,,0.00,0,Wunderground v.1.15,2013-05-11 08:10:00,
2013-05-11 03:11:00,51.0,47.3,29.91,West,273,8.0,8.0,87,0.00,,,0.00,0,Wunderground v.1.15,2013-05-11 08:11:00,
2013-05-11 03:12:00,51.0,47.3,29.91,West,275,7.0,8.0,87,0.00,,,0.00,0,Wunderground v.1.15,2013-05-11 08:12:00,
2013-05-11 03:14:00,51.0,47.3,29.91,West,274,6.0,8.0,87,0.00,,,0.00,0,Wunderground v.1.15,2013-05-11 08:14:00,
2013-05-11 03:15:00,51.1,47.4,29.92,WNW,284,10.0,10.0,87,0.00,,,0.00,0,Wunderground v.1.15,2013-05-11 08:15:00,
2013-05-11 03:19:00,51.1,47.4,29.93,WNW,291,18.0,18.0,87,0.00,,,0.00,0,Wunderground v.1.15,2013-05-11 08:19:00,
2013-05-11 03:20:00,51.4,47.7,29.93,WNW,299,15.0,15.0,87,0.00,,,0.00,0,Wunderground v.1.15,2013-05-11 08:20:00,
2013-05-11 03:24:00,52.3,48.2,29.93,WNW,300,15.0,17.0,86,0.00,,,0.00,0,Wunderground v.1.15,2013-05-11 08:24:00,
2013-05-11 03:25:00,52.5,48.1,29.93,WNW,293,18.0,18.0,85,0.00,,,0.00,0,Wunderground v.1.15,2013-05-11 08:25:00,
2013-05-11 03:26:00,52.7,48.3,29.93,WNW,292,19.0,19.0,85,0.00,,,0.00,0,Wunderground v.1.15,2013-05-11 08:26:00,
2013-05-11 03:27:00,53.1,48.4,29.94,WNW,302,16.0,21.0,84,0.00,,,0.00,0,Wunderground v.1.15,2013-05-11 08:27:00,
2013-05-11 03:30:00,53.5,48.5,29.94,WNW,295,16.0,16.0,83,0.00,,,0.00,0,Wunderground v.1.15,2013-05-11 08:30:00,
2013-05-11 03:31:00,53.5,48.5,29.94,NW,316,16.0,16.0,83,0.00,,,0.00,0,Wunderground v.1.15,2013-05-11 08:31:00,
2013-05-11 03:32:00,53.6,48.6,29.94,NW,311,14.0,17.0,83,0.00,,,0.00,0,Wunderground v.1.15,2013-05-11 08:32:00,
2013-05-11 03:33:00,53.6,48.6,29.94,NW,304,12.0,17.0,83,0.00,,,0.00,0,Wunderground v.1.15,2013-05-11 08:33:00,
2013-05-11 03:36:00,53.6,48.2,29.94,NW,304,13.0,17.0,82,0.00,,,0.00,0,Wunderground v.1.15,2013-05-11 08:36:00,
2013-05-11 03:38:00,53.5,48.1,29.94,NW,306,12.0,17.0,82,0.00,,,0.00,0,Wunderground v.1.15,2013-05-11 08:38:00,
2013-05-11 03:39:00,53.5,48.1,29.94,NW,307,13.0,17.0,82,0.00,,,0.00,0,Wunderground v.1.15,2013-05-11 08:39:00,
2013-05-11 03:41:00,53.5,48.1,29.94,NW,319,16.0,16.0,82,0.00,,,0.00,0,Wunderground v.1.15,2013-05-11 08:41:00,
2013-05-11 03:43:00,53.5,48.1,29.94,NW,313,11.0,16.0,82,0.00,,,0.00,0,Wunderground v.1.15,2013-05-11 08:43:00,
2013-05-11 03:44:00,53.5,48.1,29.94,NW,312,12.0,16.0,82,0.00,,,0.00,0,Wunderground v.1.15,2013-05-11 08:44:00,
2013-05-11 03:45:00,53.4,48.0,29.94,NW,321,12.0,16.0,82,0.00,,,0.00,0,Wunderground v.1.15,2013-05-11 08:45:00,
2013-05-11 03:48:00,53.3,47.6,29.94,WNW,298,10.0,16.0,81,0.00,,,0.00,0,Wunderground v.1.15,2013-05-11 08:48:00,
2013-05-11 03:49:00,53.2,47.5,29.94,NW,315,12.0,16.0,81,0.00,,,0.00,0,Wunderground v.1.15,2013-05-11 08:49:00,
2013-05-11 03:50:00,53.2,47.5,29.94,NW,309,9.0,16.0,81,0.00,,,0.00,0,Wunderground v.1.15,2013-05-11 08:50:00,
2013-05-11 03:52:00,53.2,47.2,29.94,NW,321,9.0,13.0,80,0.00,,,0.00,0,Wunderground v.1.15,2013-05-11 08:52:00,
2013-05-11 03:55:00,53.1,46.8,29.95,NW,320,8.0,13.0,79,0.00,,,0.00,0,Wunderground v.1.15,2013-05-11 08:55:00,
2013-05-11 03:56:00,53.1,46.4,29.95,NW,324,11.0,13.0,78,0.00,,,0.00,0,Wunderground v.1.15,2013-05-11 08:56:00,
2013-05-11 03:58:00,53.1,46.4,29.95,NW,321,11.0,14.0,78,0.00,,,0.00,0,Wunderground v.1.15,2013-05-11 08:58:00,
2013-05-11 04:00:00,53.2,46.2,29.95,WNW,303,14.0,14.0,77,0.00,,,0.00,0,Wunderground v.1.15,2013-05-11 09:00:00,
2013-05-11 04:01:00,53.1,46.1,29.95,NW,312,17.0,17.0,77,0.00,,,0.00,0,Wunderground v.1.15,2013-05-11 09:01:00,
2013-05-11 04:02:00,53.1,45.7,29.95,NW,317,12.0,17.0,76,0.00,,,0.00,0,Wunderground v.1.15,2013-05-11 09:02:00,
2013-05-11 04:04:00,53.1,45.7,29.95,NW,318,9.0,17.0,76,0.00,,,0.00,0,Wunderground v.1.15,2013-05-11 09:04:00,
2013-05-11 04:06:00,53.2,45.8,29.95,NW,326,7.0,17.0,76,0.00,,,0.00,0,Wunderground v.1.15,2013-05-11 09:06:00,
2013-05-11 04:08:00,53.2,45.8,29.95,NW,304,10.0,17.0,76,0.00,,,0.00,0,Wunderground v.1.15,2013-05-11 09:08:00,
2013-05-11 04:10:00,53.1,45.7,29.96,NW,318,7.0,11.0,76,0.00,,,0.00,0,Wunderground v.1.15,2013-05-11 09:10:00,
2013-05-11 04:11:00,53.1,45.7,29.95,NNW,330,9.0,12.0,76,0.00,,,0.00,0,Wunderground v.1.15,2013-05-11 09:11:00,
2013-05-11 04:12:00,53.1,45.7,29.96,NW,319,11.0,12.0,76,0.00,,,0.00,0,Wunderground v.1.15,2013-05-11 09:12:00,
2013-05-11 04:14:00,53.0,45.6,29.96,NW,320,8.0,12.0,76,0.00,,,0.00,0,Wunderground v.1.15,2013-05-11 09:14:00,
2013-05-11 04:16:00,52.9,45.9,29.96,NW,321,11.0,12.0,77,0.00,,,0.00,0,Wunderground v.1.15,2013-05-11 09:16:00,
2013-05-11 04:18:00,52.8,45.8,29.96,NW,324,12.0,12.0,77,0.00,,,0.00,0,Wunderground v.1.15,2013-05-11 09:18:00,
2013-05-11 04:19:00,52.7,45.7,29.96,NW,323,10.0,13.0,77,0.00,,,0.00,0,Wunderground v.1.15,2013-05-11 09:19:00,
2013-05-11 04:22:00,52.5,45.2,29.96,NNW,338,13.0,15.0,76,0.00,,,0.00,0,Wunderground v.1.15,2013-05-11 09:22:00,
2013-05-11 04:23:00,52.4,44.7,29.97,North,350,10.0,16.0,75,0.00,,,0.00,0,Wunderground v.1.15,2013-05-11 09:23:00,
2013-05-11 04:24:00,52.5,44.8,29.97,NW,320,11.0,17.0,75,0.00,,,0.00,0,Wunderground v.1.15,2013-05-11 09:24:00,
2013-05-11 04:25:00,52.4,44.7,29.97,NW,323,12.0,17.0,75,0.00,,,0.00,0,Wunderground v.1.15,2013-05-11 09:25:00,
2013-05-11 04:28:00,52.4,44.7,29.97,NW,321,15.0,17.0,75,0.00,,,0.00,0,Wunderground v.1.15,2013-05-11 09:28:00,
2013-05-11 04:29:00,52.3,44.6,29.97,NW,317,12.0,17.0,75,0.00,,,0.00,0,Wunderground v.1.15,2013-05-11 09:29:00,
2013-05-11 04:30:00,52.3,44.6,29.97,NNW,329,9.0,10.0,75,0.00,,,0.00,0,Wunderground v.1.15,2013-05-11 09:30:00,
2013-05-11 04:32:00,52.2,44.5,29.97,NW,313,11.0,11.0,75,0.00,,,0.00,0,Wunderground v.1.15,2013-05-11 09:32:00,
2013-05-11 04:34:00,52.1,44.4,29.97,NW,323,11.0,13.0,75,0.00,,,0.00,0,Wunderground v.1.15,2013-05-11 09:34:00,
2013-05-11 04:35:00,51.9,44.2,29.97,NW,321,9.0,14.0,75,0.00,,,0.00,0,Wunderground v.1.15,2013-05-11 09:35:00,
2013-05-11 04:37:00,51.9,43.9,29.97,NW,313,9.0,14.0,74,0.00,,,0.00,0,Wunderground v.1.15,2013-05-11 09:37:00,
2013-05-11 04:38:00,51.8,43.8,29.97,NW,320,7.0,14.0,74,0.00,,,0.00,0,Wunderground v.1.15,2013-05-11 09:38:00,
2013-05-11 04:40:00,51.8,43.8,29.97,NNW,331,6.0,9.0,74,0.00,,,0.00,0,Wunderground v.1.15,2013-05-11 09:40:00,
2013-05-11 04:43:00,51.7,43.0,29.98,NNW,329,3.0,12.0,72,0.00,,,0.00,0,Wunderground v.1.15,2013-05-11 09:43:00,
2013-05-11 04:44:00,51.7,43.0,29.98,NNW,345,9.0,12.0,72,0.00,,,0.00,0,Wunderground v.1.15,2013-05-11 09:44:00,
2013-05-11 04:45:00,51.7,42.6,29.97,WNW,302,4.0,12.0,71,0.00,,,0.00,0,Wunderground v.1.15,2013-05-11 09:45:00,
2013-05-11 04:46:00,51.7,43.0,29.98,NW,318,7.0,12.0,72,0.00,,,0.00,0,Wunderground v.1.15,2013-05-11 09:46:00,
2013-05-11 04:48:00,51.7,42.2,29.98,NNW,329,8.0,12.0,70,0.00,,,0.00,0,Wunderground v.1.15,2013-05-11 09:48:00,
2013-05-11 04:49:00,51.7,42.2,29.98,NW,315,12.0,12.0,70,0.00,,,0.00,0,Wunderground v.1.15,2013-05-11 09:49:00,
2013-05-11 04:51:00,51.7,42.2,29.98,NNW,338,6.0,14.0,70,0.00,,,0.00,0,Wunderground v.1.15,2013-05-11 09:51:00,
2013-05-11 04:52:00,51.7,41.9,29.98,WNW,292,3.0,14.0,69,0.00,,,0.00,0,Wunderground v.1.15,2013-05-11 09:52:00,
2013-05-11 04:54:00,51.7,41.5,29.98,NNW,346,6.0,14.0,68,0.00,,,0.00,0,Wunderground v.1.15,2013-05-11 09:54:00,
2013-05-11 04:57:00,51.7,40.3,29.98,NNW,337,9.0,14.0,65,0.00,,,0.00,0,Wunderground v.1.15,2013-05-11 09:57:00,
2013-05-11 04:58:00,51.7,40.3,29.99,North,360,11.0,14.0,65,0.00,,,0.00,0,Wunderground v.1.15,2013-05-11 09:58:00,
2013-05-11 05:00:00,51.7,39.5,29.99,North,360,3.0,14.0,63,0.00,,,0.00,0,Wunderground v.1.15,2013-05-11 10:00:00,
2013-05-11 05:03:00,51.7,39.1,29.99,NNW,328,7.0,15.0,62,0.00,,,0.00,0,Wunderground v.1.15,2013-05-11 10:03:00,
2013-05-11 05:04:00,51.7,39.5,29.99,NNW,342,7.0,15.0,63,0.00,,,0.00,0,Wunderground v.1.15,2013-05-11 10:04:00,
2013-05-11 05:05:00,51.7,39.9,29.99,NNW,336,2.0,15.0,64,0.00,,,0.00,0,Wunderground v.1.15,2013-05-11 10:05:00,
2013-05-11 05:06:00,51.6,39.4,29.99,NNW,341,6.0,15.0,63,0.00,,,0.00,0,Wunderground v.1.15,2013-05-11 10:06:00,
2013-05-11 05:09:00,51.4,39.6,29.99,NNW,339,2.0,15.0,64,0.00,,,0.00,0,Wunderground v.1.15,2013-05-11 10:09:00,
2013-05-11 05:10:00,51.3,39.1,29.99,North,5,6.0,7.0,63,0.00,,,0.00,0,Wunderground v.1.15,2013-05-11 10:10:00,
2013-05-11 05:14:00,50.9,38.3,29.99,North,355,7.0,12.0,62,0.00,,,0.00,0,Wunderground v.1.15,2013-05-11 10:14:00,
2013-05-11 05:16:00,50.9,37.9,29.99,North,355,6.0,12.0,61,0.00,,,0.00,0,Wunderground v.1.15,2013-05-11 10:16:00,
2013-05-11 05:17:00,50.8,37.8,29.99,NNW,348,11.0,12.0,61,0.00,,,0.00,0,Wunderground v.1.15,2013-05-11 10:17:00,
2013-05-11 05:19:00,50.7,37.7,30.00,North,350,7.0,15.0,61,0.00,,,0.00,0,Wunderground v.1.15,2013-05-11 10:19:00,
2013-05-11 05:22:00,50.6,37.2,29.99,NW,304,13.0,13.0,60,0.00,,,0.00,0,Wunderground v.1.15,2013-05-11 10:22:00,
2013-05-11 05:23:00,50.5,36.3,29.99,NNW,336,7.0,13.0,58,0.00,,,0.00,0,Wunderground v.1.15,2013-05-11 10:23:00,
2013-05-11 05:25:00,50.5,36.7,29.99,NNW,328,11.0,13.0,59,0.00,,,0.00,0,Wunderground v.1.15,2013-05-11 10:25:00,
2013-05-11 05:26:00,50.4,36.6,29.99,NW,321,4.0,13.0,59,0.00,,,0.00,0,Wunderground v.1.15,2013-05-11 10:26:00,
2013-05-11 05:28:00,50.4,36.2,30.00,NNE,13,7.0,13.0,58,0.00,,,0.00,0,Wunderground v.1.15,2013-05-11 10:28:00,
2013-05-11 05:29:00,50.3,35.6,30.00,North,350,5.0,13.0,57,0.00,,,0.00,0,Wunderground v.1.15,2013-05-11 10:29:00,
2013-05-11 05:30:00,50.3,36.1,30.00,North,349,8.0,10.0,58,0.00,,,0.00,0,Wunderground v.1.15,2013-05-11 10:30:00,
2013-05-11 05:34:00,50.1,35.4,30.00,North,355,6.0,10.0,57,0.00,,,0.00,0,Wunderground v.1.15,2013-05-11 10:34:00,
2013-05-11 05:35:00,50.1,35.4,30.00,NNW,345,6.0,10.0,57,0.00,,,0.00,0,Wunderground v.1.15,2013-05-11 10:35:00,
2013-05-11 05:36:00,50.1,35.4,30.00,North,351,4.0,14.0,57,0.00,,,0.00,0,Wunderground v.1.15,2013-05-11 10:36:00,
2013-05-11 05:37:00,50.0,35.4,30.00,North,351,9.0,14.0,57,0.00,,,0.00,0,Wunderground v.1.15,2013-05-11 10:37:00,
2013-05-11 05:40:00,49.8,36.0,30.00,North,355,3.0,10.0,59,0.00,,,0.00,0,Wunderground v.1.15,2013-05-11 10:40:00,
2013-05-11 05:41:00,49.8,35.6,30.00,NW,323,7.0,10.0,58,0.00,,,0.00,0,Wunderground v.1.15,2013-05-11 10:41:00,
2013-05-11 05:43:00,49.7,35.9,30.01,North,360,5.0,10.0,59,0.00,,,0.00,0,Wunderground v.1.15,2013-05-11 10:43:00,
2013-05-11 05:44:00,49.7,35.9,30.00,NNE,22,6.0,10.0,59,0.00,,,0.00,0,Wunderground v.1.15,2013-05-11 10:44:00,
2013-05-11 05:46:00,49.5,35.8,30.01,NNW,338,4.0,10.0,59,0.00,,,0.00,0,Wunderground v.1.15,2013-05-11 10:46:00,
2013-05-11 05:47:00,49.5,35.8,30.01,NNW,338,6.0,10.0,59,0.00,,,0.00,0,Wunderground v.1.15,2013-05-11 10:47:00,
2013-05-11 05:48:00,49.4,36.1,30.01,NNW,327,3.0,10.0,60,0.00,,,0.00,0,Wunderground v.1.15,2013-05-11 10:48:00,
2013-05-11 05:49:00,49.3,36.4,30.01,NW,323,4.0,10.0,61,0.00,,,0.00,0,Wunderground v.1.15,2013-05-11 10:49:00,
2013-05-11 05:51:00,49.1,36.2,30.01,NNW,344,8.0,10.0,61,0.00,,,0.00,0,Wunderground v.1.15,2013-05-11 10:51:00,
2013-05-11 05:52:00,49.0,36.1,30.01,NW,319,6.0,10.0,61,0.00,,,0.00,0,Wunderground v.1.15,2013-05-11 10:52:00,
2013-05-11 05:53:00,49.0,36.1,30.01,NNW,336,5.0,10.0,61,0.00,,,0.00,0,Wunderground v.1.15,2013-05-11 10:53:00,
2013-05-11 05:56:00,48.8,36.8,30.01,NW,325,6.0,10.0,63,0.00,,,0.00,0,Wunderground v.1.15,2013-05-11 10:56:00,
2013-05-11 05:57:00,48.7,36.7,30.01,NW,323,6.0,10.0,63,0.00,,,0.00,0,Wunderground v.1.15,2013-05-11 10:57:00,
2013-05-11 05:58:00,48.6,36.6,30.01,NW,319,4.0,10.0,63,0.00,,,0.00,5,Wunderground v.1.15,2013-05-11 10:58:00,
2013-05-11 06:00:00,48.5,36.5,30.01,NW,325,5.0,10.0,63,0.00,,,0.00,5,Wunderground v.1.15,2013-05-11 11:00:00,
2013-05-11 06:01:00,48.3,36.3,30.01,NW,326,9.0,10.0,63,0.00,,,0.00,5,Wunderground v.1.15,2013-05-11 11:01:00,
2013-05-11 06:03:00,48.2,36.2,30.02,NW,304,6.0,10.0,63,0.00,,,0.00,7,Wunderground v.1.15,2013-05-11 11:03:00,
2013-05-11 06:05:00,48.1,36.1,30.02,NW,310,10.0,10.0,63,0.00,,,0.00,9,Wunderground v.1.15,2013-05-11 11:05:00,
2013-05-11 06:07:00,48.0,36.4,30.02,NW,321,6.0,11.0,64,0.00,,,0.00,9,Wunderground v.1.15,2013-05-11 11:07:00,
2013-05-11 06:09:00,48.0,36.4,30.02,NNW,327,7.0,11.0,64,0.00,,,0.00,11,Wunderground v.1.15,2013-05-11 11:09:00,
2013-05-11 06:10:00,47.9,36.7,30.02,NW,319,9.0,9.0,65,0.00,,,0.00,11,Wunderground v.1.15,2013-05-11 11:10:00,
2013-05-11 06:12:00,47.8,37.0,30.02,NW,321,11.0,14.0,66,0.00,,,0.00,12,Wunderground v.1.15,2013-05-11 11:12:00,
2013-05-11 06:14:00,47.7,36.9,30.02,North,355,12.0,14.0,66,0.00,,,0.00,12,Wunderground v.1.15,2013-05-11 11:14:00,
2013-05-11 06:15:00,47.6,36.8,30.03,NW,325,5.0,14.0,66,0.00,,,0.00,14,Wunderground v.1.15,2013-05-11 11:15:00,
2013-05-11 06:18:00,47.3,36.5,30.03,NW,317,4.0,14.0,66,0.00,,,0.00,16,Wunderground v.1.15,2013-05-11 11:18:00,
2013-05-11 06:20:00,47.2,36.8,30.03,NNW,331,8.0,8.0,67,0.00,,,0.00,18,Wunderground v.1.15,2013-05-11 11:20:00,
2013-05-11 06:21:00,47.2,36.8,30.03,NNW,331,5.0,8.0,67,0.00,,,0.00,18,Wunderground v.1.15,2013-05-11 11:21:00,
2013-05-11 06:23:00,47.0,36.6,30.03,NNW,328,8.0,10.0,67,0.00,,,0.00,19,Wunderground v.1.15,2013-05-11 11:23:00,
2013-05-11 06:26:00,46.9,36.5,30.03,NW,320,4.0,11.0,67,0.00,,,0.00,21,Wunderground v.1.15,2013-05-11 11:26:00,
2013-05-11 06:27:00,46.9,36.5,30.03,NNW,331,6.0,11.0,67,0.00,,,0.00,25,Wunderground v.1.15,2013-05-11 11:27:00,
2013-05-11 06:28:00,46.9,36.1,30.03,NW,324,9.0,11.0,66,0.00,,,0.00,25,Wunderground v.1.15,2013-05-11 11:28:00,
2013-05-11 06:29:00,46.9,36.1,30.03,NNW,332,9.0,11.0,66,0.00,,,0.00,25,Wunderground v.1.15,2013-05-11 11:29:00,
2013-05-11 06:31:00,46.8,36.4,30.04,North,355,4.0,8.0,67,0.00,,,0.00,28,Wunderground v.1.15,2013-05-11 11:31:00,
2013-05-11 06:32:00,46.8,36.4,30.04,NW,321,10.0,10.0,67,0.00,,,0.00,30,Wunderground v.1.15,2013-05-11 11:32:00,
2013-05-11 06:33:00,46.8,36.4,30.04,NW,324,7.0,12.0,67,0.00,,,0.00,32,Wunderground v.1.15,2013-05-11 11:33:00,
2013-05-11 06:34:00,46.9,36.1,30.04,NW,320,10.0,12.0,66,0.00,,,0.00,32,Wunderground v.1.15,2013-05-11 11:34:00,
2013-05-11 06:35:00,46.8,36.4,30.04,NW,312,9.0,12.0,67,0.00,,,0.00,35,Wunderground v.1.15,2013-05-11 11:35:00,
2013-05-11 06:37:00,46.8,36.8,30.04,NW,319,8.0,12.0,68,0.00,,,0.00,40,Wunderground v.1.15,2013-05-11 11:37:00,
2013-05-11 06:38:00,46.8,37.2,30.04,NW,318,9.0,12.0,69,0.00,,,0.00,40,Wunderground v.1.15,2013-05-11 11:38:00,
2013-05-11 06:41:00,46.7,37.1,30.04,NW,317,9.0,9.0,69,0.00,,,0.00,47,Wunderground v.1.15,2013-05-11 11:41:00,
2013-05-11 06:42:00,46.7,37.1,30.05,NW,306,7.0,9.0,69,0.00,,,0.00,49,Wunderground v.1.15,2013-05-11 11:42:00,
2013-05-11 06:43:00,46.7,37.1,30.04,NW,314,8.0,10.0,69,0.00,,,0.00,51,Wunderground v.1.15,2013-05-11 11:43:00,
2013-05-11 06:44:00,46.6,37.3,30.05,NW,319,10.0,11.0,70,0.00,,,0.00,56,Wunderground v.1.15,2013-05-11 11:44:00,
2013-05-11 06:47:00,46.5,37.2,30.05,NW,317,9.0,11.0,70,0.00,,,0.00,60,Wunderground v.1.15,2013-05-11 11:47:00,
2013-05-11 06:48:00,46.5,37.6,30.05,NW,314,9.0,11.0,71,0.00,,,0.00,67,Wunderground v.1.15,2013-05-11 11:48:00,
2013-05-11 06:49:00,46.5,37.6,30.05,NW,318,6.0,11.0,71,0.00,,,0.00,67,Wunderground v.1.15,2013-05-11 11:49:00,
2013-05-11 06:50:00,46.4,37.9,30.05,NW,319,8.0,11.0,72,0.00,,,0.00,69,Wunderground v.1.15,2013-05-11 11:50:00,
2013-05-11 06:52:00,46.4,37.5,30.05,NNW,331,8.0,11.0,71,0.00,,,0.00,77,Wunderground v.1.15,2013-05-11 11:52:00,
2013-05-11 06:54:00,46.3,37.8,30.05,NW,316,9.0,12.0,72,0.00,,,0.00,79,Wunderground v.1.15,2013-05-11 11:54:00,
2013-05-11 06:55:00,46.3,37.8,30.05,NNW,329,6.0,12.0,72,0.00,,,0.00,84,Wunderground v.1.15,2013-05-11 11:55:00,
2013-05-11 06:58:00,46.3,37.8,30.05,WNW,302,6.0,12.0,72,0.00,,,0.00,95,Wunderground v.1.15,2013-05-11 11:58:00,
2013-05-11 06:59:00,46.3,37.8,30.05,NW,316,12.0,12.0,72,0.00,,,0.00,102,Wunderground v.1.15,2013-05-11 11:59:00,
2013-05-11 07:00:00,46.3,37.4,30.05,NW,317,11.0,12.0,71,0.00,,,0.00,102,Wunderground v.1.15,2013-05-11 12:00:00,
2013-05-11 07:01:00,46.3,37.4,30.05,NW,311,5.0,10.0,71,0.00,,,0.00,107,Wunderground v.1.15,2013-05-11 12:01:00,
2013-05-11 07:03:00,46.4,37.5,30.05,NW,317,8.0,13.0,71,0.00,,,0.00,113,Wunderground v.1.15,2013-05-11 12:03:00,
2013-05-11 07:05:00,46.5,37.6,30.05,NW,323,12.0,13.0,71,0.00,,,0.00,114,Wunderground v.1.15,2013-05-11 12:05:00,
2013-05-11 07:06:00,46.5,37.2,30.05,NW,322,9.0,13.0,70,0.00,,,0.00,125,Wunderground v.1.15,2013-05-11 12:06:00,
2013-05-11 07:07:00,46.6,37.3,30.05,NW,312,14.0,14.0,70,0.00,,,0.00,127,Wunderground v.1.15,2013-05-11 12:07:00,
2013-05-11 07:09:00,46.6,37.7,30.06,NW,309,11.0,14.0,71,0.00,,,0.00,134,Wunderground v.1.15,2013-05-11 12:09:00,
2013-05-11 07:11:00,46.7,37.8,30.06,NW,317,9.0,10.0,71,0.00,,,0.00,141,Wunderground v.1.15,2013-05-11 12:11:00,
2013-05-11 07:12:00,46.7,37.8,30.06,NW,319,8.0,11.0,71,0.00,,,0.00,142,Wunderground v.1.15,2013-05-11 12:12:00,
2013-05-11 07:15:00,46.8,37.9,30.06,NW,311,9.0,11.0,71,0.00,,,0.00,156,Wunderground v.1.15,2013-05-11 12:15:00,
2013-05-11 07:16:00,46.9,38.0,30.06,NW,323,9.0,11.0,71,0.00,,,0.00,156,Wunderground v.1.15,2013-05-11 12:16:00,
2013-05-11 07:18:00,46.9,37.3,30.06,NW,318,9.0,13.0,69,0.00,,,0.00,169,Wunderground v.1.15,2013-05-11 12:18:00,
2013-05-11 07:19:00,46.9,37.3,30.06,NW,312,12.0,13.0,69,0.00,,,0.00,169,Wunderground v.1.15,2013-05-11 12:19:00,
2013-05-11 07:20:00,47.0,37.4,30.06,NW,309,12.0,13.0,69,0.00,,,0.00,172,Wunderground v.1.15,2013-05-11 12:20:00,
2013-05-11 07:21:00,47.0,37.4,30.06,NW,321,8.0,12.0,69,0.00,,,0.00,178,Wunderground v.1.15,2013-05-11 12:21:00,
2013-05-11 07:22:00,47.1,37.8,30.06,NW,319,12.0,12.0,70,0.00,,,0.00,178,Wunderground v.1.15,2013-05-11 12:22:00,
2013-05-11 07:23:00,47.2,37.5,30.06,NW,320,9.0,13.0,69,0.00,,,0.00,186,Wunderground v.1.15,2013-05-11 12:23:00,
2013-05-11 07:25:00,47.2,37.5,30.06,NW,317,13.0,13.0,69,0.00,,,0.00,190,Wunderground v.1.15,2013-05-11 12:25:00,
2013-05-11 07:26:00,47.2,37.2,30.06,NW,315,11.0,13.0,68,0.00,,,0.00,193,Wunderground v.1.15,2013-05-11 12:26:00,
2013-05-11 07:30:00,47.4,37.4,30.06,NW,316,14.0,14.0,68,0.00,,,0.00,206,Wunderground v.1.15,2013-05-11 12:30:00,
2013-05-11 07:31:00,47.5,37.5,30.06,NW,312,14.0,16.0,68,0.00,,,0.00,206,Wunderground v.1.15,2013-05-11 12:31:00,
2013-05-11 07:32:00,47.6,37.2,30.06,NW,311,11.0,16.0,67,0.00,,,0.00,211,Wunderground v.1.15,2013-05-11 12:32:00,
2013-05-11 07:34:00,47.6,37.6,30.06,NW,323,11.0,16.0,68,0.00,,,0.00,213,Wunderground v.1.15,2013-05-11 12:34:00,
2013-05-11 07:35:00,47.7,37.7,30.07,NW,309,14.0,16.0,68,0.00,,,0.00,220,Wunderground v.1.15,2013-05-11 12:35:00,
2013-05-11 07:36:00,47.7,37.7,30.07,NW,313,15.0,16.0,68,0.00,,,0.00,220,Wunderground v.1.15,2013-05-11 12:36:00,
2013-05-11 07:37:00,47.7,36.9,30.07,NW,317,12.0,16.0,66,0.00,,,0.00,221,Wunderground v.1.15,2013-05-11 12:37:00,
2013-05-11 07:40:00,47.9,37.5,30.06,NNW,327,10.0,12.0,67,0.00,,,0.00,234,Wunderground v.1.15,2013-05-11 12:40:00,
2013-05-11 07:41:00,47.8,37.4,30.07,NW,324,10.0,12.0,67,0.00,,,0.00,237,Wunderground v.1.15,2013-05-11 12:41:00,
2013-05-11 07:45:00,48.1,37.3,30.07,NNW,332,7.0,13.0,66,0.00,,,0.00,253,Wunderground v.1.15,2013-05-11 12:45:00,
2013-05-11 07:46:00,48.1,36.5,30.07,NW,317,10.0,13.0,64,0.00,,,0.00,258,Wunderground v.1.15,2013-05-11 12:46:00,
2013-05-11 07:47:00,48.1,36.5,30.07,NW,309,13.0,13.0,64,0.00,,,0.00,258,Wunderground v.1.15,2013-05-11 12:47:00,
2013-05-11 07:48:00,48.2,37.8,30.07,NW,321,11.0,13.0,67,0.00,,,0.00,260,Wunderground v.1.15,2013-05-11 12:48:00,
2013-05-11 07:52:00,48.4,37.6,30.07,NW,318,14.0,16.0,66,0.00,,,0.00,276,Wunderground v.1.15,2013-05-11 12:52:00,
2013-05-11 07:53:00,48.4,37.2,30.07,WNW,301,14.0,16.0,65,0.00,,,0.00,279,Wunderground v.1.15,2013-05-11 12:53:00,
2013-05-11 07:54:00,48.5,37.3,30.07,NW,321,12.0,16.0,65,0.00,,,0.00,281,Wunderground v.1.15,2013-05-11 12:54:00,
2013-05-11 07:57:00,48.6,37.4,30.07,NW,304,12.0,16.0,65,0.00,,,0.00,294,Wunderground v.1.15,2013-05-11 12:57:00,
2013-05-11 07:58:00,48.6,37.4,30.07,NW,320,15.0,16.0,65,0.00,,,0.00,295,Wunderground v.1.15,2013-05-11 12:58:00,
2013-05-11 07:59:00,48.6,36.2,30.07,WNW,299,11.0,16.0,62,0.00,,,0.00,297,Wunderground v.1.15,2013-05-11 12:59:00,
2013-05-11 08:00:00,48.7,37.5,30.08,NW,311,13.0,13.0,65,0.00,,,0.00,302,Wunderground v.1.15,2013-05-11 13:00:00,
2013-05-11 08:03:00,48.7,36.7,30.08,NW,325,8.0,15.0,63,0.00,,,0.00,311,Wunderground v.1.15,2013-05-11 13:03:00,
2013-05-11 08:04:00,48.8,37.6,30.08,NNW,336,12.0,15.0,65,0.00,,,0.00,315,Wunderground v.1.15,2013-05-11 13:04:00,
2013-05-11 08:06:00,48.8,36.8,30.08,NW,315,17.0,17.0,63,0.00,,,0.00,315,Wunderground v.1.15,2013-05-11 13:06:00,
2013-05-11 08:08:00,48.9,37.3,30.08,NW,309,19.0,19.0,64,0.00,,,0.00,330,Wunderground v.1.15,2013-05-11 13:08:00,
2013-05-11 08:09:00,48.9,36.9,30.08,NW,313,21.0,21.0,63,0.00,,,0.00,330,Wunderground v.1.15,2013-05-11 13:09:00,
2013-05-11 08:11:00,48.8,36.4,30.08,NW,313,12.0,20.0,62,0.00,,,0.00,341,Wunderground v.1.15,2013-05-11 13:11:00,
2013-05-11 08:12:00,48.8,36.4,30.08,NW,317,10.0,20.0,62,0.00,,,0.00,341,Wunderground v.1.15,2013-05-11 13:12:00,
2013-05-11 08:15:00,49.1,37.0,30.08,NNW,333,6.0,20.0,63,0.00,,,0.00,355,Wunderground v.1.15,2013-05-11 13:15:00,
2013-05-11 08:16:00,49.2,37.5,30.08,NNE,28,7.0,20.0,64,0.00,,,0.00,359,Wunderground v.1.15,2013-05-11 13:16:00,
2013-05-11 08:18:00,49.3,36.8,30.08,NW,321,11.0,20.0,62,0.00,,,0.00,362,Wunderground v.1.15,2013-05-11 13:18:00,
2013-05-11 08:19:00,49.4,37.7,30.08,NW,307,3.0,20.0,64,0.00,,,0.00,371,Wunderground v.1.15,2013-05-11 13:19:00,
2013-05-11 08:20:00,49.5,37.8,30.08,NNW,331,5.0,10.0,64,0.00,,,0.00,374,Wunderground v.1.15,2013-05-11 13:20:00,
2013-05-11 08:22:00,49.6,37.1,30.08,NNW,333,8.0,10.0,62,0.00,,,0.00,383,Wunderground v.1.15,2013-05-11 13:22:00,
2013-05-11 08:23:00,49.7,37.6,30.08,North,5,3.0,10.0,63,0.00,,,0.00,383,Wunderground v.1.15,2013-05-11 13:23:00,
2013-05-11 08:24:00,49.8,36.9,30.08,NNW,344,3.0,10.0,61,0.00,,,0.00,390,Wunderground v.1.15,2013-05-11 13:24:00,
2013-05-11 08:27:00,50.0,37.5,30.08,NW,309,14.0,14.0,62,0.00,,,0.00,401,Wunderground v.1.15,2013-05-11 13:27:00,
2013-05-11 08:28:00,50.1,38.0,30.08,North,355,9.0,14.0,63,0.00,,,0.00,406,Wunderground v.1.15,2013-05-11 13:28:00,
2013-05-11 08:29:00,50.1,38.0,30.08,NW,311,13.0,14.0,63,0.00,,,0.00,406,Wunderground v.1.15,2013-05-11 13:29:00,
2013-05-11 08:30:00,50.1,37.6,30.08,WNW,296,15.0,15.0,62,0.00,,,0.00,411,Wunderground v.1.15,2013-05-11 13:30:00,
2013-05-11 08:31:00,50.1,37.6,30.08,NW,318,13.0,15.0,62,0.00,,,0.00,413,Wunderground v.1.15,2013-05-11 13:31:00,
2013-05-11 08:34:00,50.5,36.3,30.08,NNW,335,7.0,15.0,58,0.00,,,0.00,422,Wunderground v.1.15,2013-05-11 13:34:00,
2013-05-11 08:35:00,50.7,36.9,30.08,North,5,6.0,15.0,59,0.00,,,0.00,427,Wunderground v.1.15,2013-05-11 13:35:00,
2013-05-11 08:37:00,50.8,37.0,30.08,NNW,329,13.0,15.0,59,0.00,,,0.00,432,Wunderground v.1.15,2013-05-11 13:37:00,
2013-05-11 08:39:00,51.0,37.2,30.08,North,355,2.0,15.0,59,0.00,,,0.00,436,Wunderground v.1.15,2013-05-11 13:39:00,
2013-05-11 08:41:00,51.1,37.3,30.08,NNW,333,2.0,6.0,59,0.00,,,0.00,443,Wunderground v.1.15,2013-05-11 13:41:00,
2013-05-11 08:42:00,51.2,36.5,30.08,NW,309,6.0,7.0,57,0.00,,,0.00,446,Wunderground v.1.15,2013-05-11 13:42:00,
2013-05-11 08:44:00,51.2,37.8,30.08,NNW,348,7.0,16.0,60,0.00,,,0.00,446,Wunderground v.1.15,2013-05-11 13:44:00,
2013-05-11 08:45:00,51.3,37.0,30.08,NNW,331,3.0,16.0,58,0.00,,,0.00,455,Wunderground v.1.15,2013-05-11 13:45:00,
2013-05-11 08:47:00,51.4,36.7,30.08,NW,321,13.0,16.0,57,0.00,,,0.00,461,Wunderground v.1.15,2013-05-11 13:47:00,
2013-05-11 08:49:00,51.5,36.8,30.08,NW,318,14.0,16.0,57,0.00,,,0.00,464,Wunderground v.1.15,2013-05-11 13:49:00,
2013-05-11 08:50:00,51.5,36.8,30.08,North,360,12.0,16.0,57,0.00,,,0.00,471,Wunderground v.1.15,2013-05-11 13:50:00,
2013-05-11 08:52:00,51.5,38.1,30.08,North,9,8.0,13.0,60,0.00,,,0.00,476,Wunderground v.1.15,2013-05-11 13:52:00,
2013-05-11 08:53:00,51.6,37.3,30.09,NNW,338,11.0,13.0,58,0.00,,,0.00,482,Wunderground v.1.15,2013-05-11 13:53:00,
2013-05-11 08:54:00,51.7,36.9,30.08,North,360,8.0,13.0,57,0.00,,,0.00,482,Wunderground v.1.15,2013-05-11 13:54:00,
2013-05-11 08:56:00,51.7,36.0,30.09,NNW,343,5.0,13.0,55,0.00,,,0.00,489,Wunderground v.1.15,2013-05-11 13:56:00,
2013-05-11 08:59:00,51.9,37.1,30.09,NW,325,7.0,15.0,57,0.00,,,0.00,501,Wunderground v.1.15,2013-05-11 13:59:00,
2013-05-11 09:01:00,51.8,37.0,30.09,NW,321,10.0,13.0,57,0.00,,,0.00,506,Wunderground v.1.15,2013-05-11 14:01:00,
2013-05-11 09:04:00,51.9,37.1,30.09,NE,39,4.0,13.0,57,0.00,,,0.00,513,Wunderground v.1.15,2013-05-11 14:04:00,
2013-05-11 09:05:00,52.0,37.2,30.09,NNW,338,6.0,13.0,57,0.00,,,0.00,513,Wunderground v.1.15,2013-05-11 14:05:00,
2013-05-11 09:06:00,52.1,36.9,30.09,NW,315,8.0,13.0,56,0.00,,,0.00,522,Wunderground v.1.15,2013-05-11 14:06:00,
2013-05-11 09:07:00,52.1,37.8,30.09,NNW,335,11.0,13.0,58,0.00,,,0.00,529,Wunderground v.1.15,2013-05-11 14:07:00,
2013-05-11 09:09:00,52.1,36.4,30.09,NNW,341,7.0,15.0,55,0.00,,,0.00,531,Wunderground v.1.15,2013-05-11 14:09:00,
2013-05-11 09:10:00,52.1,36.9,30.09,NNW,329,5.0,9.0,56,0.00,,,0.00,531,Wunderground v.1.15,2013-05-11 14:10:00,
2013-05-11 09:11:00,52.1,36.9,30.09,NNW,337,8.0,9.0,56,0.00,,,0.00,538,Wunderground v.1.15,2013-05-11 14:11:00,
2013-05-11 09:13:00,52.1,37.8,30.09,WNW,300,10.0,10.0,58,0.00,,,0.00,545,Wunderground v.1.15,2013-05-11 14:13:00,
2013-05-11 09:15:00,52.2,37.4,30.09,NW,316,5.0,14.0,57,0.00,,,0.00,548,Wunderground v.1.15,2013-05-11 14:15:00,
2013-05-11 09:16:00,52.2,37.4,30.09,NW,317,4.0,14.0,57,0.00,,,0.00,548,Wunderground v.1.15,2013-05-11 14:16:00,
2013-05-11 09:17:00,52.2,37.9,30.10,NW,316,6.0,14.0,58,0.00,,,0.00,548,Wunderground v.1.15,2013-05-11 14:17:00,
2013-05-11 09:20:00,52.6,37.3,30.10,NNW,343,7.0,14.0,56,0.00,,,0.00,566,Wunderground v.1.15,2013-05-11 14:20:00,
2013-05-11 09:21:00,52.7,39.2,30.10,NW,312,6.0,8.0,60,0.00,,,0.00,568,Wunderground v.1.15,2013-05-11 14:21:00,
2013-05-11 09:23:00,52.8,39.3,30.10,NNW,344,6.0,16.0,60,0.00,,,0.00,575,Wunderground v.1.15,2013-05-11 14:23:00,
2013-05-11 09:25:00,52.7,38.3,30.10,NNW,327,4.0,16.0,58,0.00,,,0.00,582,Wunderground v.1.15,2013-05-11 14:25:00,
2013-05-11 09:26:00,52.7,38.8,30.10,NNW,327,6.0,16.0,59,0.00,,,0.00,584,Wunderground v.1.15,2013-05-11 14:26:00,
2013-05-11 09:27:00,52.7,37.9,30.10,NW,309,13.0,20.0,57,0.00,,,0.00,591,Wunderground v.1.15,2013-05-11 14:27:00,
2013-05-11 09:28:00,52.6,38.2,30.10,NW,323,13.0,20.0,58,0.00,,,0.00,592,Wunderground v.1.15,2013-05-11 14:28:00,
2013-05-11 09:31:00,52.7,39.6,30.10,NW,317,20.0,20.0,61,0.00,,,0.00,601,Wunderground v.1.15,2013-05-11 14:31:00,
2013-05-11 09:33:00,52.6,37.3,30.10,NNW,331,12.0,20.0,56,0.00,,,0.00,601,Wunderground v.1.15,2013-05-11 14:33:00,
2013-05-11 09:34:00,52.5,36.8,30.10,NW,323,17.0,20.0,55,0.00,,,0.00,608,Wunderground v.1.15,2013-05-11 14:34:00,
2013-05-11 09:35:00,52.4,38.0,30.10,NW,313,18.0,22.0,58,0.00,,,0.00,615,Wunderground v.1.15,2013-05-11 14:35:00,
2013-05-11 09:36:00,52.4,38.0,30.10,NW,317,11.0,22.0,58,0.00,,,0.00,619,Wunderground v.1.15,2013-05-11 14:36:00,
2013-05-11 09:38:00,52.5,37.2,30.10,North,5,8.0,22.0,56,0.00,,,0.00,622,Wunderground v.1.15,2013-05-11 14:38:00,
2013-05-11 09:40:00,52.6,38.7,30.10,NNW,338,8.0,13.0,59,0.00,,,0.00,629,Wunderground v.1.15,2013-05-11 14:40:00,
2013-05-11 09:42:00,52.7,38.8,30.10,NNW,329,14.0,16.0,59,0.00,,,0.00,636,Wunderground v.1.15,2013-05-11 14:42:00,
2013-05-11 09:44:00,52.7,37.4,30.10,NNW,327,8.0,20.0,56,0.00,,,0.00,640,Wunderground v.1.15,2013-05-11 14:44:00,
2013-05-11 09:45:00,52.7,37.4,30.10,North,349,6.0,20.0,56,0.00,,,0.00,640,Wunderground v.1.15,2013-05-11 14:45:00,
2013-05-11 09:46:00,52.8,38.4,30.10,NW,325,11.0,20.0,58,0.00,,,0.00,647,Wunderground v.1.15,2013-05-11 14:46:00,
2013-05-11 09:47:00,52.8,37.1,30.10,NNE,25,2.0,20.0,55,0.00,,,0.00,649,Wunderground v.1.15,2013-05-11 14:47:00,
2013-05-11 09:48:00,52.8,37.5,30.10,NW,325,6.0,20.0,56,0.00,,,0.00,649,Wunderground v.1.15,2013-05-11 14:48:00,
2013-05-11 09:51:00,52.8,38.4,30.10,North,355,10.0,10.0,58,0.00,,,0.00,657,Wunderground v.1.15,2013-05-11 14:51:00,
2013-05-11 09:53:00,52.9,39.0,30.10,NW,315,17.0,18.0,59,0.00,,,0.00,663,Wunderground v.1.15,2013-05-11 14:53:00,
2013-05-11 09:54:00,52.9,38.5,30.10,NW,325,14.0,21.0,58,0.00,,,0.00,668,Wunderground v.1.15,2013-05-11 14:54:00,
2013-05-11 09:57:00,52.8,37.5,30.10,NW,320,19.0,22.0,56,0.00,,,0.00,673,Wunderground v.1.15,2013-05-11 14:57:00,
2013-05-11 09:58:00,52.8,38.0,30.10,NW,321,11.0,22.0,57,0.00,,,0.00,679,Wunderground v.1.15,2013-05-11 14:58:00,
2013-05-11 09:59:00,52.8,38.0,30.10,NW,312,14.0,22.0,57,0.00,,,0.00,679,Wunderground v.1.15,2013-05-11 14:59:00,
2013-05-11 10:01:00,52.9,37.6,30.10,WNW,292,9.0,13.0,56,0.00,,,0.00,686,Wunderground v.1.15,2013-05-11 15:01:00,
2013-05-11 10:02:00,53.1,38.3,30.10,NW,308,2.0,13.0,57,0.00,,,0.00,687,Wunderground v.1.15,2013-05-11 15:02:00,
2013-05-11 10:03:00,53.3,38.4,30.10,NW,313,9.0,13.0,57,0.00,,,0.00,693,Wunderground v.1.15,2013-05-11 15:03:00,
2013-05-11 10:04:00,53.5,39.5,30.10,NW,326,2.0,13.0,59,0.00,,,0.00,696,Wunderground v.1.15,2013-05-11 15:04:00,
2013-05-11 10:06:00,53.8,39.8,30.10,NW,311,14.0,14.0,59,0.00,,,0.00,701,Wunderground v.1.15,2013-05-11 15:06:00,
2013-05-11 10:07:00,53.9,40.3,30.10,North,351,6.0,24.0,60,0.00,,,0.00,701,Wunderground v.1.15,2013-05-11 15:07:00,
2013-05-11 10:08:00,54.1,40.1,30.10,NNW,334,7.0,24.0,59,0.00,,,0.00,708,Wunderground v.1.15,2013-05-11 15:08:00,
2013-05-11 10:11:00,54.2,39.3,30.10,NW,326,17.0,22.0,57,0.00,,,0.00,714,Wunderground v.1.15,2013-05-11 15:11:00,
2013-05-11 10:12:00,54.1,38.7,30.10,NW,315,19.0,26.0,56,0.00,,,0.00,717,Wunderground v.1.15,2013-05-11 15:12:00,
2013-05-11 10:13:00,54.0,39.1,30.10,NW,315,24.0,27.0,57,0.00,,,0.00,717,Wunderground v.1.15,2013-05-11 15:13:00,
2013-05-11 10:15:00,53.7,38.8,30.10,NNW,329,23.0,27.0,57,0.00,,,0.00,722,Wunderground v.1.15,2013-05-11 15:15:00,
2013-05-11 10:16:00,53.6,38.3,30.10,NW,311,14.0,27.0,56,0.00,,,0.00,724,Wunderground v.1.15,2013-05-11 15:16:00,
2013-05-11 10:18:00,53.5,39.1,30.10,NW,322,9.0,27.0,58,0.00,,,0.00,728,Wunderground v.1.15,2013-05-11 15:18:00,
2013-05-11 10:19:00,53.4,39.0,30.10,NW,309,21.0,27.0,58,0.00,,,0.00,731,Wunderground v.1.15,2013-05-11 15:19:00,
2013-05-11 10:20:00,53.5,39.9,30.11,NW,319,18.0,27.0,60,0.00,,,0.00,735,Wunderground v.1.15,2013-05-11 15:20:00,
2013-05-11 10:21:00,53.5,39.1,30.11,NW,326,19.0,20.0,58,0.00,,,0.00,737,Wunderground v.1.15,2013-05-11 15:21:00,
2013-05-11 10:22:00,53.5,39.1,30.11,NW,311,19.0,20.0,58,0.00,,,0.00,737,Wunderground v.1.15,2013-05-11 15:22:00,
2013-05-11 10:23:00,53.5,39.1,30.11,NNW,344,8.0,25.0,58,0.00,,,0.00,742,Wunderground v.1.15,2013-05-11 15:23:00,
2013-05-11 10:25:00,53.6,38.7,30.11,NW,318,9.0,25.0,57,0.00,,,0.00,749,Wunderground v.1.15,2013-05-11 15:25:00,
2013-05-11 10:26:00,53.6,38.3,30.11,NW,324,17.0,25.0,56,0.00,,,0.00,751,Wunderground v.1.15,2013-05-11 15:26:00,
2013-05-11 10:27:00,53.6,39.6,30.11,NNW,330,11.0,25.0,59,0.00,,,0.00,754,Wunderground v.1.15,2013-05-11 15:27:00,
2013-05-11 10:30:00,53.7,39.7,30.11,NW,323,15.0,18.0,59,0.00,,,0.00,768,Wunderground v.1.15,2013-05-11 15:30:00,
2013-05-11 10:32:00,53.8,40.2,30.11,NNW,327,20.0,20.0,60,0.00,,,0.00,768,Wunderground v.1.15,2013-05-11 15:32:00,
2013-05-11 10:34:00,53.7,38.4,30.11,NW,309,20.0,23.0,56,0.00,,,0.00,791,Wunderground v.1.15,2013-05-11 15:34:00,
2013-05-11 10:35:00,53.6,38.7,30.11,NW,321,19.0,23.0,57,0.00,,,0.00,796,Wunderground v.1.15,2013-05-11 15:35:00,
2013-05-11 10:37:00,53.6,39.2,30.12,NW,322,7.0,23.0,58,0.00,,,0.00,796,Wunderground v.1.15,2013-05-11 15:37:00,
2013-05-11 10:38:00,53.6,38.3,30.12,NW,308,7.0,23.0,56,0.00,,,0.00,796,Wunderground v.1.15,2013-05-11 15:38:00,
2013-05-11 10:40:00,53.6,37.8,30.11,North,9,9.0,14.0,55,0.00,,,0.00,805,Wunderground v.1.15,2013-05-11 15:40:00,
2013-05-11 10:41:00,53.6,38.3,30.11,NNW,327,4.0,14.0,56,0.00,,,0.00,817,Wunderground v.1.15,2013-05-11 15:41:00,
2013-05-11 10:42:00,53.7,38.4,30.11,NE,49,6.0,14.0,56,0.00,,,0.00,816,Wunderground v.1.15,2013-05-11 15:42:00,
2013-05-11 10:43:00,53.8,38.0,30.11,NW,308,6.0,14.0,55,0.00,,,0.00,816,Wunderground v.1.15,2013-05-11 15:43:00,
2013-05-11 10:45:00,54.3,40.3,30.11,WNW,285,9.0,17.0,59,0.00,,,0.00,816,Wunderground v.1.15,2013-05-11 15:45:00,
2013-05-11 10:46:00,54.5,38.7,30.11,WNW,285,15.0,17.0,55,0.00,,,0.00,823,Wunderground v.1.15,2013-05-11 15:46:00,
2013-05-11 10:48:00,54.5,38.2,30.11,NNE,13,12.0,17.0,54,0.00,,,0.00,819,Wunderground v.1.15,2013-05-11 15:48:00,
2013-05-11 10:49:00,54.5,38.2,30.11,NNW,329,7.0,17.0,54,0.00,,,0.00,819,Wunderground v.1.15,2013-05-11 15:49:00,
2013-05-11 10:51:00,54.4,37.6,30.11,NW,314,7.0,10.0,53,0.00,,,0.00,826,Wunderground v.1.15,2013-05-11 15:51:00,
2013-05-11 10:53:00,54.3,37.0,30.11,North,360,9.0,11.0,52,0.00,,,0.00,830,Wunderground v.1.15,2013-05-11 15:53:00,
2013-05-11 10:54:00,54.3,38.0,30.11,NNW,348,13.0,14.0,54,0.00,,,0.00,837,Wunderground v.1.15,2013-05-11 15:54:00,
2013-05-11 10:56:00,54.2,37.9,30.11,NW,320,8.0,14.0,54,0.00,,,0.00,842,Wunderground v.1.15,2013-05-11 15:56:00,
2013-05-11 10:57:00,54.2,37.4,30.11,NNE,30,12.0,14.0,53,0.00,,,0.00,851,Wunderground v.1.15,2013-05-11 15:57:00,
2013-05-11 10:58:00,54.2,37.4,30.11,NNW,335,8.0,14.0,53,0.00,,,0.00,858,Wunderground v.1.15,2013-05-11 15:58:00,
2013-05-11 11:02:00,54.4,37.6,30.11,NNW,327,16.0,17.0,53,0.00,,,0.00,895,Wunderground v.1.15,2013-05-11 16:02:00,
2013-05-11 11:03:00,54.4,37.6,30.11,NW,321,21.0,21.0,53,0.00,,,0.00,891,Wunderground v.1.15,2013-05-11 16:03:00,
2013-05-11 11:07:00,54.8,37.5,30.11,North,360,22.0,23.0,52,0.00,,,0.00,893,Wunderground v.1.15,2013-05-11 16:07:00,
2013-05-11 11:08:00,54.7,35.4,30.11,NNE,14,3.0,23.0,48,0.00,,,0.00,935,Wunderground v.1.15,2013-05-11 16:08:00,
2013-05-11 11:09:00,54.6,37.3,30.11,NNW,327,8.0,23.0,52,0.00,,,0.00,914,Wunderground v.1.15,2013-05-11 16:09:00,
2013-05-11 11:13:00,54.7,36.9,30.11,North,10,9.0,14.0,51,0.00,,,0.00,918,Wunderground v.1.15,2013-05-11 16:13:00,
2013-05-11 11:14:00,54.6,36.8,30.11,NW,304,19.0,19.0,51,0.00,,,0.00,898,Wunderground v.1.15,2013-05-11 16:14:00,
2013-05-11 11:15:00,54.5,37.7,30.11,NNW,331,8.0,19.0,53,0.00,,,0.00,898,Wunderground v.1.15,2013-05-11 16:15:00,
2013-05-11 11:18:00,54.7,37.4,30.11,NW,321,19.0,26.0,52,0.00,,,0.00,907,Wunderground v.1.15,2013-05-11 16:18:00,
2013-05-11 11:19:00,54.7,37.4,30.11,NW,320,18.0,26.0,52,0.00,,,0.00,907,Wunderground v.1.15,2013-05-11 16:19:00,
2013-05-11 11:21:00,54.8,38.5,30.11,NNW,327,26.0,26.0,54,0.00,,,0.00,898,Wunderground v.1.15,2013-05-11 16:21:00,
2013-05-11 11:22:00,54.8,37.0,30.11,NW,305,17.0,26.0,51,0.00,,,0.00,896,Wunderground v.1.15,2013-05-11 16:22:00,
2013-05-11 11:23:00,54.9,37.6,30.11,NW,318,15.0,26.0,52,0.00,,,0.00,896,Wunderground v.1.15,2013-05-11 16:23:00,
2013-05-11 11:24:00,54.8,37.5,30.11,NW,313,27.0,27.0,52,0.00,,,0.00,893,Wunderground v.1.15,2013-05-11 16:24:00,
2013-05-11 11:27:00,54.8,37.0,30.11,NW,315,17.0,28.0,51,0.00,,,0.00,893,Wunderground v.1.15,2013-05-11 16:27:00,
2013-05-11 11:30:00,54.9,38.1,30.11,North,355,14.0,28.0,53,0.00,,,0.00,912,Wunderground v.1.15,2013-05-11 16:30:00,
2013-05-11 11:31:00,55.0,37.7,30.11,NW,304,21.0,21.0,52,0.00,,,0.00,904,Wunderground v.1.15,2013-05-11 16:31:00,
2013-05-11 11:33:00,55.0,36.7,30.11,NNW,331,21.0,24.0,50,0.00,,,0.00,902,Wunderground v.1.15,2013-05-11 16:33:00,
2013-05-11 11:35:00,55.1,37.8,30.11,NNW,329,5.0,25.0,52,0.00,,,0.00,958,Wunderground v.1.15,2013-05-11 16:35:00,
2013-05-11 11:37:00,55.4,37.1,30.11,NW,309,7.0,25.0,50,0.00,,,0.00,947,Wunderground v.1.15,2013-05-11 16:37:00,
2013-05-11 11:38:00,55.5,37.7,30.11,NW,313,21.0,25.0,51,0.00,,,0.00,921,Wunderground v.1.15,2013-05-11 16:38:00,
2013-05-11 11:41:00,55.6,37.2,30.11,NW,306,23.0,23.0,50,0.00,,,0.00,995,Wunderground v.1.15,2013-05-11 16:41:00,
2013-05-11 11:44:00,55.7,37.3,30.11,NW,312,21.0,23.0,50,0.00,,,0.00,935,Wunderground v.1.15,2013-05-11 16:44:00,
2013-05-11 11:47:00,55.3,37.0,30.11,NW,311,21.0,26.0,50,0.00,,,0.00,953,Wunderground v.1.15,2013-05-11 16:47:00,
2013-05-11 11:49:00,55.3,38.0,30.11,NW,323,25.0,28.0,52,0.00,,,0.00,937,Wunderground v.1.15,2013-05-11 16:49:00,
2013-05-11 11:50:00,55.2,36.4,30.11,NW,315,27.0,27.0,49,0.00,,,0.00,937,Wunderground v.1.15,2013-05-11 16:50:00,
2013-05-11 11:51:00,55.3,36.5,30.11,NNW,327,21.0,27.0,49,0.00,,,0.00,947,Wunderground v.1.15,2013-05-11 16:51:00,
2013-05-11 11:53:00,55.3,36.5,30.11,WNW,302,20.0,27.0,49,0.00,,,0.00,947,Wunderground v.1.15,2013-05-11 16:53:00,
2013-05-11 11:56:00,55.2,37.4,30.12,NNW,343,10.0,27.0,51,0.00,,,0.00,965,Wunderground v.1.15,2013-05-11 16:56:00,
2013-05-11 11:57:00,55.3,37.0,30.11,NW,311,16.0,27.0,50,0.00,,,0.00,965,Wunderground v.1.15,2013-05-11 16:57:00,
2013-05-11 11:58:00,55.3,37.0,30.11,North,11,7.0,27.0,50,0.00,,,0.00,965,Wunderground v.1.15,2013-05-11 16:58:00,
2013-05-11 12:00:00,55.4,38.1,30.11,NW,318,14.0,27.0,52,0.00,,,0.00,967,Wunderground v.1.15,2013-05-11 17:00:00,
2013-05-11 12:01:00,55.6,38.2,30.11,NNW,342,14.0,17.0,52,0.00,,,0.00,976,Wunderground v.1.15,2013-05-11 17:01:00,
2013-05-11 12:02:00,55.8,37.9,30.11,NE,51,6.0,17.0,51,0.00,,,0.00,986,Wunderground v.1.15,2013-05-11 17:02:00,
2013-05-11 12:03:00,55.9,35.9,30.11,NW,311,15.0,17.0,47,0.00,,,0.00,997,Wunderground v.1.15,2013-05-11 17:03:00,
2013-05-11 12:04:00,55.9,35.9,30.11,NW,310,16.0,17.0,47,0.00,,,0.00,997,Wunderground v.1.15,2013-05-11 17:04:00,
2013-05-11 12:07:00,56.0,37.6,30.12,NNW,348,16.0,25.0,50,0.00,,,0.00,974,Wunderground v.1.15,2013-05-11 17:07:00,
2013-05-11 12:09:00,56.0,35.5,30.11,NW,319,17.0,25.0,46,0.00,,,0.00,969,Wunderground v.1.15,2013-05-11 17:09:00,
2013-05-11 12:12:00,55.8,35.9,30.11,NNW,329,22.0,29.0,47,0.00,,,0.00,986,Wunderground v.1.15,2013-05-11 17:12:00,
2013-05-11 12:14:00,55.7,35.8,30.11,WNW,302,20.0,29.0,47,0.00,,,0.00,1049,Wunderground v.1.15,2013-05-11 17:14:00,
2013-05-11 12:15:00,55.6,35.1,30.11,NW,314,15.0,29.0,46,0.00,,,0.00,1032,Wunderground v.1.15,2013-05-11 17:15:00,
2013-05-11 12:18:00,55.8,36.4,30.11,NNW,333,21.0,29.0,48,0.00,,,0.00,1106,Wunderground v.1.15,2013-05-11 17:18:00,
2013-05-11 12:19:00,55.8,36.9,30.12,NW,311,20.0,29.0,49,0.00,,,0.00,988,Wunderground v.1.15,2013-05-11 17:19:00,
2013-05-11 12:21:00,55.8,35.9,30.12,WNW,298,23.0,25.0,47,0.00,,,0.00,1074,Wunderground v.1.15,2013-05-11 17:21:00,
2013-05-11 12:22:00,55.8,35.9,30.12,NW,321,19.0,25.0,47,0.00,,,0.00,1074,Wunderground v.1.15,2013-05-11 17:22:00,
2013-05-11 12:23:00,56.0,36.6,30.11,NNW,332,17.0,25.0,48,0.00,,,0.00,1002,Wunderground v.1.15,2013-05-11 17:23:00,
2013-05-11 12:25:00,55.9,36.5,30.12,NW,318,16.0,25.0,48,0.00,,,0.00,1167,Wunderground v.1.15,2013-05-11 17:25:00,
2013-05-11 12:26:00,55.9,36.5,30.12,NNW,341,11.0,25.0,48,0.00,,,0.00,1167,Wunderground v.1.15,2013-05-11 17:26:00,
2013-05-11 12:27:00,55.7,35.8,30.12,NNW,331,13.0,25.0,47,0.00,,,0.00,1167,Wunderground v.1.15,2013-05-11 17:27:00,
2013-05-11 12:30:00,55.6,36.7,30.12,NW,315,19.0,19.0,49,0.00,,,0.00,1034,Wunderground v.1.15,2013-05-11 17:30:00,
2013-05-11 12:32:00,55.6,35.7,30.12,NNW,328,27.0,28.0,47,0.00,,,0.00,1013,Wunderground v.1.15,2013-05-11 17:32:00,
2013-05-11 12:33:00,55.6,35.7,30.12,NW,324,13.0,28.0,47,0.00,,,0.00,1000,Wunderground v.1.15,2013-05-11 17:33:00,
2013-05-11 12:37:00,55.8,36.9,30.12,NW,316,22.0,30.0,49,0.00,,,0.00,1023,Wunderground v.1.15,2013-05-11 17:37:00,
2013-05-11 12:38:00,55.8,36.9,30.12,NW,315,18.0,30.0,49,0.00,,,0.00,1030,Wunderground v.1.15,2013-05-11 17:38:00,
2013-05-11 12:39:00,56.0,37.1,30.12,NW,314,18.0,30.0,49,0.00,,,0.00,1030,Wunderground v.1.15,2013-05-11 17:39:00,
2013-05-11 12:41:00,56.2,36.8,30.12,NNW,333,18.0,24.0,48,0.00,,,0.00,1027,Wunderground v.1.15,2013-05-11 17:41:00,
2013-05-11 12:43:00,56.4,37.5,30.12,NW,309,24.0,24.0,49,0.00,,,0.00,1042,Wunderground v.1.15,2013-05-11 17:43:00,
2013-05-11 12:44:00,56.3,37.4,30.12,NW,317,24.0,25.0,49,0.00,,,0.00,1044,Wunderground v.1.15,2013-05-11 17:44:00,
2013-05-11 12:45:00,56.3,34.6,30.12,NW,317,20.0,28.0,44,0.00,,,0.00,1044,Wunderground v.1.15,2013-05-11 17:45:00,
2013-05-11 12:46:00,56.2,36.8,30.12,NW,321,16.0,28.0,48,0.00,,,0.00,1030,Wunderground v.1.15,2013-05-11 17:46:00,
2013-05-11 12:49:00,56.4,35.9,30.12,NW,320,11.0,31.0,46,0.00,,,0.00,1027,Wunderground v.1.15,2013-05-11 17:49:00,
2013-05-11 12:50:00,56.4,36.4,30.12,NNW,330,25.0,31.0,47,0.00,,,0.00,1011,Wunderground v.1.15,2013-05-11 17:50:00,
2013-05-11 12:52:00,56.4,35.9,30.12,NNW,331,15.0,21.0,46,0.00,,,0.00,1011,Wunderground v.1.15,2013-05-11 17:52:00,
2013-05-11 12:55:00,56.4,37.5,30.12,NW,315,19.0,24.0,49,0.00,,,0.00,1071,Wunderground v.1.15,2013-05-11 17:55:00,
2013-05-11 12:56:00,56.4,36.4,30.12,NW,318,19.0,24.0,47,0.00,,,0.00,1116,Wunderground v.1.15,2013-05-11 17:56:00,
2013-05-11 12:58:00,56.4,38.5,30.12,NW,319,9.0,24.0,51,0.00,,,0.00,1116,Wunderground v.1.15,2013-05-11 17:58:00,
2013-05-11 13:00:00,55.9,35.9,30.12,NW,318,28.0,28.0,47,0.00,,,0.00,1023,Wunderground v.1.15,2013-05-11 18:00:00,
2013-05-11 13:01:00,55.9,35.9,30.12,NW,313,19.0,28.0,47,0.00,,,0.00,1023,Wunderground v.1.15,2013-05-11 18:01:00,
2013-05-11 13:02:00,55.8,35.9,30.12,NW,306,17.0,28.0,47,0.00,,,0.00,1085,Wunderground v.1.15,2013-05-11 18:02:00,
2013-05-11 13:03:00,55.9,36.5,30.12,NNW,343,8.0,28.0,48,0.00,,,0.00,1085,Wunderground v.1.15,2013-05-11 18:03:00,
2013-05-11 13:04:00,55.8,36.9,30.12,NNW,327,17.0,28.0,49,0.00,,,0.00,269,Wunderground v.1.15,2013-05-11 18:04:00,
2013-05-11 13:06:00,55.8,37.4,30.12,NW,316,21.0,28.0,50,0.00,,,0.00,269,Wunderground v.1.15,2013-05-11 18:06:00,
2013-05-11 13:07:00,55.8,36.4,30.12,NNW,341,11.0,28.0,48,0.00,,,0.00,313,Wunderground v.1.15,2013-05-11 18:07:00,
2013-05-11 13:08:00,55.7,36.3,30.12,NNW,329,14.0,28.0,48,0.00,,,0.00,313,Wunderground v.1.15,2013-05-11 18:08:00,
2013-05-11 13:09:00,55.5,35.0,30.12,NW,321,12.0,28.0,46,0.00,,,0.00,1085,Wunderground v.1.15,2013-05-11 18:09:00,
2013-05-11 13:10:00,55.5,36.1,30.12,NNW,329,12.0,20.0,48,0.00,,,0.00,1085,Wunderground v.1.15,2013-05-11 18:10:00,
2013-05-11 13:13:00,55.4,36.0,30.12,WNW,303,20.0,24.0,48,0.00,,,0.00,1067,Wunderground v.1.15,2013-05-11 18:13:00,
2013-05-11 13:14:00,55.5,36.1,30.12,NW,305,17.0,24.0,48,0.00,,,0.00,1134,Wunderground v.1.15,2013-05-11 18:14:00,
2013-05-11 13:16:00,55.5,35.0,30.12,NW,309,22.0,24.0,46,0.00,,,0.00,311,Wunderground v.1.15,2013-05-11 18:16:00,
2013-05-11 13:18:00,55.4,34.9,30.12,NW,311,24.0,28.0,46,0.00,,,0.00,311,Wunderground v.1.15,2013-05-11 18:18:00,
2013-05-11 13:19:00,55.5,34.5,30.13,WNW,297,18.0,28.0,45,0.00,,,0.00,311,Wunderground v.1.15,2013-05-11 18:19:00,
2013-05-11 13:21:00,55.6,34.6,30.12,NW,308,21.0,26.0,45,0.00,,,0.00,1037,Wunderground v.1.15,2013-05-11 18:21:00,
2013-05-11 13:22:00,55.7,36.8,30.13,NW,325,17.0,26.0,49,0.00,,,0.00,1032,Wunderground v.1.15,2013-05-11 18:22:00,
2013-05-11 13:23:00,55.8,35.3,30.13,NNW,331,15.0,26.0,46,0.00,,,0.00,1032,Wunderground v.1.15,2013-05-11 18:23:00,
2013-05-11 13:24:00,55.9,35.4,30.13,NNE,17,11.0,26.0,46,0.00,,,0.00,1027,Wunderground v.1.15,2013-05-11 18:24:00,
2013-05-11 13:28:00,56.0,34.9,30.12,NW,317,23.0,27.0,45,0.00,,,0.00,1014,Wunderground v.1.15,2013-05-11 18:28:00,
2013-05-11 13:30:00,56.0,35.5,30.12,NNW,328,15.0,18.0,46,0.00,,,0.00,1034,Wunderground v.1.15,2013-05-11 18:30:00,
2013-05-11 13:31:00,56.1,35.6,30.13,NNW,338,16.0,25.0,46,0.00,,,0.00,1034,Wunderground v.1.15,2013-05-11 18:31:00,
2013-05-11 13:33:00,56.2,35.7,30.12,NW,313,23.0,25.0,46,0.00,,,0.00,1014,Wunderground v.1.15,2013-05-11 18:33:00,
2013-05-11 13:35:00,56.3,35.2,30.13,NW,314,18.0,27.0,45,0.00,,,0.00,1028,Wunderground v.1.15,2013-05-11 18:35:00,
2013-05-11 13:36:00,56.4,34.7,30.12,NW,315,22.0,27.0,44,0.00,,,0.00,1028,Wunderground v.1.15,2013-05-11 18:36:00,
2013-05-11 13:37:00,56.5,34.3,30.12,NW,317,20.0,27.0,43,0.00,,,0.00,1028,Wunderground v.1.15,2013-05-11 18:37:00,
2013-05-11 13:38:00,56.6,35.5,30.12,NW,311,16.0,27.0,45,0.00,,,0.00,997,Wunderground v.1.15,2013-05-11 18:38:00,
2013-05-11 13:39:00,56.6,36.0,30.12,NNW,333,9.0,27.0,46,0.00,,,0.00,997,Wunderground v.1.15,2013-05-11 18:39:00,
2013-05-11 13:40:00,56.8,37.8,30.12,NW,326,10.0,18.0,49,0.00,,,0.00,991,Wunderground v.1.15,2013-05-11 18:40:00,
2013-05-11 13:43:00,56.7,35.6,30.13,NW,314,6.0,18.0,45,0.00,,,0.00,1002,Wunderground v.1.15,2013-05-11 18:43:00,
2013-05-11 13:44:00,56.6,36.0,30.12,NNW,343,13.0,18.0,46,0.00,,,0.00,1023,Wunderground v.1.15,2013-05-11 18:44:00,
2013-05-11 13:45:00,56.5,36.0,30.12,North,349,14.0,18.0,46,0.00,,,0.00,1023,Wunderground v.1.15,2013-05-11 18:45:00,
2013-05-11 13:46:00,56.6,36.6,30.12,NW,316,11.0,22.0,47,0.00,,,0.00,1023,Wunderground v.1.15,2013-05-11 18:46:00,
2013-05-11 13:49:00,56.4,33.6,30.12,NW,315,21.0,24.0,42,0.00,,,0.00,1023,Wunderground v.1.15,2013-05-11 18:49:00,
2013-05-11 13:50:00,56.4,34.2,30.13,NW,309,15.0,16.0,43,0.00,,,0.00,1032,Wunderground v.1.15,2013-05-11 18:50:00,
2013-05-11 13:52:00,56.7,37.7,30.13,NW,315,23.0,30.0,49,0.00,,,0.00,1025,Wunderground v.1.15,2013-05-11 18:52:00,
2013-05-11 13:55:00,56.6,34.9,30.13,WNW,299,23.0,30.0,44,0.00,,,0.00,998,Wunderground v.1.15,2013-05-11 18:55:00,
2013-05-11 13:56:00,56.6,34.9,30.13,WNW,294,24.0,30.0,44,0.00,,,0.00,998,Wunderground v.1.15,2013-05-11 18:56:00,
2013-05-11 13:57:00,56.5,33.7,30.12,WNW,298,28.0,30.0,42,0.00,,,0.00,1007,Wunderground v.1.15,2013-05-11 18:57:00,
2013-05-11 14:00:00,56.7,35.6,30.12,North,360,5.0,21.0,45,0.00,,,0.00,990,Wunderground v.1.15,2013-05-11 19:00:00,
2013-05-11 14:01:00,56.7,35.6,30.12,NW,311,6.0,21.0,45,0.00,,,0.00,990,Wunderground v.1.15,2013-05-11 19:01:00,
2013-05-11 14:02:00,56.8,34.5,30.12,North,360,8.0,21.0,43,0.00,,,0.00,990,Wunderground v.1.15,2013-05-11 19:02:00,
2013-05-11 14:03:00,56.7,34.4,30.13,North,350,7.0,21.0,43,0.00,,,0.00,990,Wunderground v.1.15,2013-05-11 19:03:00,
2013-05-11 14:07:00,56.5,34.3,30.13,NW,308,15.0,22.0,43,0.00,,,0.00,981,Wunderground v.1.15,2013-05-11 19:07:00,
2013-05-11 14:08:00,56.6,34.3,30.13,NNW,338,14.0,24.0,43,0.00,,,0.00,984,Wunderground v.1.15,2013-05-11 19:08:00,
2013-05-11 14:13:00,56.9,35.2,30.12,NNW,337,7.0,24.0,44,0.00,,,0.00,984,Wunderground v.1.15,2013-05-11 19:13:00,
2013-05-11 14:14:00,57.1,35.4,30.13,WNW,293,3.0,24.0,44,0.00,,,0.00,986,Wunderground v.1.15,2013-05-11 19:14:00,
2013-05-11 14:15:00,57.1,35.9,30.13,NNW,328,6.0,24.0,45,0.00,,,0.00,986,Wunderground v.1.15,2013-05-11 19:15:00,
2013-05-11 14:16:00,57.1,34.8,30.13,North,355,10.0,24.0,43,0.00,,,0.00,986,Wunderground v.1.15,2013-05-11 19:16:00,
2013-05-11 14:18:00,57.1,33.0,30.13,NNW,330,10.0,24.0,40,0.00,,,0.00,967,Wunderground v.1.15,2013-05-11 19:18:00,
2013-05-11 14:20:00,57.0,33.5,30.13,NW,316,18.0,24.0,41,0.00,,,0.00,963,Wunderground v.1.15,2013-05-11 19:20:00,
2013-05-11 14:22:00,56.9,34.0,30.13,NW,325,8.0,22.0,42,0.00,,,0.00,963,Wunderground v.1.15,2013-05-11 19:22:00,
2013-05-11 14:25:00,56.8,33.3,30.13,NW,321,20.0,22.0,41,0.00,,,0.00,954,Wunderground v.1.15,2013-05-11 19:25:00,
2013-05-11 14:27:00,57.1,35.4,30.13,NW,321,17.0,22.0,44,0.00,,,0.00,953,Wunderground v.1.15,2013-05-11 19:27:00,
2013-05-11 14:29:00,57.4,35.1,30.12,NW,315,15.0,22.0,43,0.00,,,0.00,956,Wunderground v.1.15,2013-05-11 19:29:00,
2013-05-11 14:31:00,57.5,33.3,30.13,North,360,27.0,29.0,40,0.00,,,0.00,956,Wunderground v.1.15,2013-05-11 19:31:00,
2013-05-11 14:32:00,57.4,32.6,30.13,NW,316,22.0,29.0,39,0.00,,,0.00,956,Wunderground v.1.15,2013-05-11 19:32:00,
2013-05-11 14:33:00,57.3,32.5,30.13,NW,308,21.0,29.0,39,0.00,,,0.00,951,Wunderground v.1.15,2013-05-11 19:33:00,
2013-05-11 14:35:00,57.3,33.8,30.13,NW,315,21.0,29.0,41,0.00,,,0.00,946,Wunderground v.1.15,2013-05-11 19:35:00,
2013-05-11 14:36:00,57.3,33.2,30.13,NW,304,22.0,29.0,40,0.00,,,0.00,942,Wunderground v.1.15,2013-05-11 19:36:00,
2013-05-11 14:38:00,57.4,32.6,30.12,WNW,302,26.0,29.0,39,0.00,,,0.00,942,Wunderground v.1.15,2013-05-11 19:38:00,
2013-05-11 14:40:00,57.3,32.5,30.13,NW,317,20.0,29.0,39,0.00,,,0.00,930,Wunderground v.1.15,2013-05-11 19:40:00,
2013-05-11 14:41:00,57.3,34.4,30.13,NW,323,16.0,21.0,42,0.00,,,0.00,940,Wunderground v.1.15,2013-05-11 19:41:00,
2013-05-11 14:42:00,57.3,34.4,30.13,North,355,7.0,21.0,42,0.00,,,0.00,946,Wunderground v.1.15,2013-05-11 19:42:00,
2013-05-11 14:44:00,57.1,33.0,30.12,NNW,328,23.0,23.0,40,0.00,,,0.00,991,Wunderground v.1.15,2013-05-11 19:44:00,
2013-05-11 14:46:00,57.1,33.6,30.12,NW,314,20.0,23.0,41,0.00,,,0.00,944,Wunderground v.1.15,2013-05-11 19:46:00,
2013-05-11 14:47:00,57.1,33.0,30.12,NW,314,17.0,26.0,40,0.00,,,0.00,932,Wunderground v.1.15,2013-05-11 19:47:00,
2013-05-11 14:49:00,57.3,33.2,30.13,NNW,336,8.0,27.0,40,0.00,,,0.00,930,Wunderground v.1.15,2013-05-11 19:49:00,
2013-05-11 14:52:00,57.5,35.7,30.13,NW,321,15.0,19.0,44,0.00,,,0.00,937,Wunderground v.1.15,2013-05-11 19:52:00,
2013-05-11 14:53:00,57.7,34.7,30.13,NW,312,8.0,19.0,42,0.00,,,0.00,937,Wunderground v.1.15,2013-05-11 19:53:00,
2013-05-11 14:54:00,57.8,35.4,30.13,NW,319,13.0,19.0,43,0.00,,,0.00,919,Wunderground v.1.15,2013-05-11 19:54:00,
2013-05-11 14:58:00,57.7,34.1,30.13,NW,317,21.0,29.0,41,0.00,,,0.00,919,Wunderground v.1.15,2013-05-11 19:58:00,
2013-05-11 14:59:00,57.7,33.5,30.13,NW,318,18.0,29.0,40,0.00,,,0.00,916,Wunderground v.1.15,2013-05-11 19:59:00,
2013-05-11 15:00:00,57.7,32.2,30.13,NNW,329,17.0,29.0,38,0.00,,,0.00,909,Wunderground v.1.15,2013-05-11 20:00:00,
2013-05-11 15:03:00,57.5,31.4,30.13,NW,312,18.0,21.0,37,0.00,,,0.00,912,Wunderground v.1.15,2013-05-11 20:03:00,
2013-05-11 15:05:00,57.5,32.7,30.13,NW,321,19.0,27.0,39,0.00,,,0.00,912,Wunderground v.1.15,2013-05-11 20:05:00,
2013-05-11 15:06:00,57.5,32.7,30.13,NW,309,11.0,27.0,39,0.00,,,0.00,900,Wunderground v.1.15,2013-05-11 20:06:00,
2013-05-11 15:07:00,57.4,32.0,30.13,NNW,335,21.0,27.0,38,0.00,,,0.00,900,Wunderground v.1.15,2013-05-11 20:07:00,
2013-05-11 15:08:00,57.4,30.6,30.13,NNW,327,17.0,27.0,36,0.00,,,0.00,896,Wunderground v.1.15,2013-05-11 20:08:00,
2013-05-11 15:10:00,57.3,32.5,30.13,NW,317,20.0,20.0,39,0.00,,,0.00,895,Wunderground v.1.15,2013-05-11 20:10:00,
2013-05-11 15:12:00,57.4,32.0,30.13,North,349,13.0,22.0,38,0.00,,,0.00,891,Wunderground v.1.15,2013-05-11 20:12:00,
2013-05-11 15:13:00,57.4,32.0,30.13,NW,319,13.0,22.0,38,0.00,,,0.00,891,Wunderground v.1.15,2013-05-11 20:13:00,
2013-05-11 15:14:00,57.5,33.3,30.13,NW,315,18.0,24.0,40,0.00,,,0.00,884,Wunderground v.1.15,2013-05-11 20:14:00,
2013-05-11 15:15:00,57.6,32.8,30.13,NW,315,19.0,24.0,39,0.00,,,0.00,884,Wunderground v.1.15,2013-05-11 20:15:00,
2013-05-11 15:16:00,57.6,33.4,30.13,WNW,300,9.0,24.0,40,0.00,,,0.00,884,Wunderground v.1.15,2013-05-11 20:16:00,
2013-05-11 15:18:00,57.5,32.7,30.13,NW,320,16.0,24.0,39,0.00,,,0.00,881,Wunderground v.1.15,2013-05-11 20:18:00,
2013-05-11 15:19:00,57.4,31.3,30.13,NW,314,18.0,24.0,37,0.00,,,0.00,914,Wunderground v.1.15,2013-05-11 20:19:00,
2013-05-11 15:21:00,57.6,32.8,30.13,NW,309,23.0,29.0,39,0.00,,,0.00,893,Wunderground v.1.15,2013-05-11 20:21:00,
2013-05-11 15:22:00,57.6,32.8,30.13,NW,321,22.0,29.0,39,0.00,,,0.00,872,Wunderground v.1.15,2013-05-11 20:22:00,
2013-05-11 15:23:00,57.7,31.6,30.13,NW,316,23.0,29.0,37,0.00,,,0.00,870,Wunderground v.1.15,2013-05-11 20:23:00,
2013-05-11 15:24:00,57.6,31.5,30.13,NW,310,24.0,29.0,37,0.00,,,0.00,870,Wunderground v.1.15,2013-05-11 20:24:00,
2013-05-11 15:26:00,57.6,30.8,30.13,NW,315,22.0,29.0,36,0.00,,,0.00,865,Wunderground v.1.15,2013-05-11 20:26:00,
2013-05-11 15:27:00,57.6,30.8,30.13,WNW,301,20.0,29.0,36,0.00,,,0.00,861,Wunderground v.1.15,2013-05-11 20:27:00,
2013-05-11 15:29:00,57.7,31.6,30.13,NW,313,27.0,29.0,37,0.00,,,0.00,860,Wunderground v.1.15,2013-05-11 20:29:00,
2013-05-11 15:31:00,57.7,31.6,30.13,NNW,327,16.0,21.0,37,0.00,,,0.00,854,Wunderground v.1.15,2013-05-11 20:31:00,
2013-05-11 15:32:00,57.8,33.6,30.13,NW,311,22.0,22.0,40,0.00,,,0.00,854,Wunderground v.1.15,2013-05-11 20:32:00,
2013-05-11 15:33:00,57.8,34.2,30.13,WNW,303,18.0,22.0,41,0.00,,,0.00,851,Wunderground v.1.15,2013-05-11 20:33:00,
2013-05-11 15:36:00,57.9,31.8,30.13,WNW,297,28.0,28.0,37,0.00,,,0.00,856,Wunderground v.1.15,2013-05-11 20:36:00,
2013-05-11 15:37:00,57.8,29.6,30.12,NNW,337,26.0,30.0,34,0.00,,,0.00,856,Wunderground v.1.15,2013-05-11 20:37:00,
2013-05-11 15:38:00,57.7,28.8,30.13,NW,319,21.0,30.0,33,0.00,,,0.00,846,Wunderground v.1.15,2013-05-11 20:38:00,
2013-05-11 15:41:00,57.4,30.6,30.13,NW,322,19.0,19.0,36,0.00,,,0.00,833,Wunderground v.1.15,2013-05-11 20:41:00,
2013-05-11 15:42:00,57.4,30.6,30.13,NNW,338,15.0,19.0,36,0.00,,,0.00,833,Wunderground v.1.15,2013-05-11 20:42:00,
2013-05-11 15:44:00,57.5,32.7,30.13,NW,321,23.0,23.0,39,0.00,,,0.00,830,Wunderground v.1.15,2013-05-11 20:44:00,
2013-05-11 15:45:00,57.4,31.3,30.13,North,360,12.0,25.0,37,0.00,,,0.00,821,Wunderground v.1.15,2013-05-11 20:45:00,
2013-05-11 15:47:00,57.4,31.3,30.13,WNW,300,17.0,25.0,37,0.00,,,0.00,821,Wunderground v.1.15,2013-05-11 20:47:00,
2013-05-11 15:48:00,57.4,30.6,30.12,NW,311,22.0,25.0,36,0.00,,,0.00,821,Wunderground v.1.15,2013-05-11 20:48:00,
2013-05-11 15:49:00,57.4,32.0,30.12,NW,315,23.0,28.0,38,0.00,,,0.00,821,Wunderground v.1.15,2013-05-11 20:49:00,
2013-05-11 15:51:00,57.4,32.0,30.12,NNW,333,9.0,17.0,38,0.00,,,0.00,817,Wunderground v.1.15,2013-05-11 20:51:00,
2013-05-11 15:53:00,57.5,30.7,30.12,NW,316,13.0,17.0,36,0.00,,,0.00,803,Wunderground v.1.15,2013-05-11 20:53:00,
2013-05-11 15:54:00,57.6,32.8,30.13,NNW,335,11.0,18.0,39,0.00,,,0.00,803,Wunderground v.1.15,2013-05-11 20:54:00,
2013-05-11 15:55:00,57.6,30.8,30.13,NW,321,10.0,18.0,36,0.00,,,0.00,795,Wunderground v.1.15,2013-05-11 20:55:00,
2013-05-11 15:56:00,57.6,30.8,30.13,NW,326,20.0,20.0,36,0.00,,,0.00,796,Wunderground v.1.15,2013-05-11 20:56:00,
2013-05-11 15:58:00,57.7,32.9,30.12,NW,322,22.0,22.0,39,0.00,,,0.00,802,Wunderground v.1.15,2013-05-11 20:58:00,
2013-05-11 15:59:00,57.6,30.1,30.12,NW,317,16.0,22.0,35,0.00,,,0.00,802,Wunderground v.1.15,2013-05-11 20:59:00,
2013-05-11 16:01:00,57.6,31.5,30.13,NNE,22,14.0,23.0,37,0.00,,,0.00,791,Wunderground v.1.15,2013-05-11 21:01:00,
2013-05-11 16:02:00,57.5,27.8,30.12,NNW,346,6.0,23.0,32,0.00,,,0.00,791,Wunderground v.1.15,2013-05-11 21:02:00,
2013-05-11 16:04:00,57.2,30.5,30.12,NNW,331,5.0,23.0,36,0.00,,,0.00,782,Wunderground v.1.15,2013-05-11 21:04:00,
2013-05-11 16:05:00,57.3,30.5,30.12,NW,315,6.0,23.0,36,0.00,,,0.00,775,Wunderground v.1.15,2013-05-11 21:05:00,
2013-05-11 16:07:00,57.5,30.7,30.12,WNW,300,24.0,24.0,36,0.00,,,0.00,773,Wunderground v.1.15,2013-05-11 21:07:00,
2013-05-11 16:08:00,57.6,30.1,30.12,NW,304,27.0,27.0,35,0.00,,,0.00,773,Wunderground v.1.15,2013-05-11 21:08:00,
2013-05-11 16:10:00,57.5,30.0,30.12,NW,321,17.0,21.0,35,0.00,,,0.00,765,Wunderground v.1.15,2013-05-11 21:10:00,
2013-05-11 16:11:00,57.5,30.0,30.12,NW,319,18.0,21.0,35,0.00,,,0.00,765,Wunderground v.1.15,2013-05-11 21:11:00,
2013-05-11 16:14:00,57.6,30.8,30.12,NW,319,31.0,31.0,36,0.00,,,0.00,758,Wunderground v.1.15,2013-05-11 21:14:00,
2013-05-11 16:15:00,57.5,30.0,30.12,NW,326,16.0,31.0,35,0.00,,,0.00,756,Wunderground v.1.15,2013-05-11 21:15:00,
2013-05-11 16:16:00,57.5,30.7,30.12,North,350,18.0,31.0,36,0.00,,,0.00,756,Wunderground v.1.15,2013-05-11 21:16:00,
2013-05-11 16:18:00,57.5,31.4,30.13,NNW,338,12.0,31.0,37,0.00,,,0.00,744,Wunderground v.1.15,2013-05-11 21:18:00,
2013-05-11 16:19:00,57.6,31.5,30.13,NNW,346,8.0,31.0,37,0.00,,,0.00,738,Wunderground v.1.15,2013-05-11 21:19:00,
2013-05-11 16:20:00,57.5,30.0,30.13,NNW,340,8.0,31.0,35,0.00,,,0.00,735,Wunderground v.1.15,2013-05-11 21:20:00,
2013-05-11 16:21:00,57.4,30.6,30.12,NNW,346,6.0,15.0,36,0.00,,,0.00,733,Wunderground v.1.15,2013-05-11 21:21:00,
2013-05-11 16:24:00,57.2,31.1,30.12,NNE,16,6.0,17.0,37,0.00,,,0.00,724,Wunderground v.1.15,2013-05-11 21:24:00,
2013-05-11 16:25:00,57.2,31.1,30.12,NW,306,5.0,17.0,37,0.00,,,0.00,724,Wunderground v.1.15,2013-05-11 21:25:00,
2013-05-11 16:26:00,57.2,30.5,30.13,NW,309,17.0,20.0,36,0.00,,,0.00,724,Wunderground v.1.15,2013-05-11 21:26:00,
2013-05-11 16:27:00,57.2,30.5,30.13,NW,317,11.0,20.0,36,0.00,,,0.00,719,Wunderground v.1.15,2013-05-11 21:27:00,
2013-05-11 16:30:00,57.1,29.7,30.12,NW,313,24.0,26.0,35,0.00,,,0.00,712,Wunderground v.1.15,2013-05-11 21:30:00,
2013-05-11 16:31:00,57.1,30.4,30.13,NW,312,16.0,21.0,36,0.00,,,0.00,712,Wunderground v.1.15,2013-05-11 21:31:00,
2013-05-11 16:32:00,57.1,31.0,30.12,NW,323,20.0,27.0,37,0.00,,,0.00,712,Wunderground v.1.15,2013-05-11 21:32:00,
2013-05-11 16:33:00,57.2,31.1,30.12,NNW,335,11.0,27.0,37,0.00,,,0.00,703,Wunderground v.1.15,2013-05-11 21:33:00,
2013-05-11 16:35:00,57.1,30.4,30.13,NNW,342,8.0,27.0,36,0.00,,,0.00,696,Wunderground v.1.15,2013-05-11 21:35:00,
2013-05-11 16:36:00,57.2,31.8,30.12,NNW,338,6.0,27.0,38,0.00,,,0.00,694,Wunderground v.1.15,2013-05-11 21:36:00,
2013-05-11 16:38:00,57.2,31.1,30.12,WNW,298,19.0,27.0,37,0.00,,,0.00,684,Wunderground v.1.15,2013-05-11 21:38:00,
2013-05-11 16:40:00,57.2,31.8,30.12,NNW,333,17.0,17.0,38,0.00,,,0.00,680,Wunderground v.1.15,2013-05-11 21:40:00,
2013-05-11 16:42:00,57.4,32.0,30.12,NW,304,9.0,17.0,38,0.00,,,0.00,677,Wunderground v.1.15,2013-05-11 21:42:00,
2013-05-11 16:43:00,57.4,32.0,30.12,NNE,24,10.0,17.0,38,0.00,,,0.00,677,Wunderground v.1.15,2013-05-11 21:43:00,
2013-05-11 16:44:00,57.3,29.9,30.12,NNW,338,7.0,17.0,35,0.00,,,0.00,673,Wunderground v.1.15,2013-05-11 21:44:00,
2013-05-11 16:46:00,57.2,31.1,30.12,NW,324,9.0,17.0,37,0.00,,,0.00,666,Wunderground v.1.15,2013-05-11 21:46:00,
2013-05-11 16:47:00,57.3,31.9,30.12,NE,36,8.0,17.0,38,0.00,,,0.00,664,Wunderground v.1.15,2013-05-11 21:47:00,
2013-05-11 16:49:00,57.2,29.1,30.12,WNW,300,19.0,19.0,34,0.00,,,0.00,656,Wunderground v.1.15,2013-05-11 21:49:00,
2013-05-11 16:51:00,57.3,30.5,30.12,NNW,327,21.0,22.0,36,0.00,,,0.00,652,Wunderground v.1.15,2013-05-11 21:51:00,
2013-05-11 16:54:00,57.3,29.9,30.12,NW,323,22.0,22.0,35,0.00,,,0.00,642,Wunderground v.1.15,2013-05-11 21:54:00,
2013-05-11 16:55:00,57.2,29.1,30.12,NW,321,12.0,22.0,34,0.00,,,0.00,642,Wunderground v.1.15,2013-05-11 21:55:00,
2013-05-11 16:56:00,57.2,31.1,30.12,NNW,328,9.0,22.0,37,0.00,,,0.00,635,Wunderground v.1.15,2013-05-11 21:56:00,
2013-05-11 16:57:00,57.3,31.2,30.12,NW,313,16.0,22.0,37,0.00,,,0.00,635,Wunderground v.1.15,2013-05-11 21:57:00,
2013-05-11 16:59:00,57.3,30.5,30.12,NW,318,11.0,22.0,36,0.00,,,0.00,628,Wunderground v.1.15,2013-05-11 21:59:00,
2013-05-11 17:00:00,57.3,29.9,30.12,NW,325,26.0,26.0,35,0.00,,,0.00,628,Wunderground v.1.15,2013-05-11 22:00:00,
2013-05-11 17:01:00,57.2,29.1,30.12,NNW,336,10.0,16.0,34,0.00,,,0.00,628,Wunderground v.1.15,2013-05-11 22:01:00,
2013-05-11 17:03:00,57.1,30.4,30.12,NW,309,9.0,16.0,36,0.00,,,0.00,621,Wunderground v.1.15,2013-05-11 22:03:00,
2013-05-11 17:04:00,57.2,29.8,30.12,NW,321,17.0,20.0,35,0.00,,,0.00,617,Wunderground v.1.15,2013-05-11 22:04:00,
2013-05-11 17:06:00,57.1,29.7,30.12,NW,317,20.0,28.0,35,0.00,,,0.00,610,Wunderground v.1.15,2013-05-11 22:06:00,
2013-05-11 17:08:00,57.2,28.3,30.12,NW,323,22.0,28.0,33,0.00,,,0.00,603,Wunderground v.1.15,2013-05-11 22:08:00,
2013-05-11 17:09:00,57.2,27.6,30.13,NW,306,24.0,28.0,32,0.00,,,0.00,596,Wunderground v.1.15,2013-05-11 22:09:00,
2013-05-11 17:11:00,57.1,29.0,30.13,NNW,344,11.0,18.0,34,0.00,,,0.00,589,Wunderground v.1.15,2013-05-11 22:11:00,
2013-05-11 17:13:00,57.1,28.2,30.12,NW,321,11.0,18.0,33,0.00,,,0.00,585,Wunderground v.1.15,2013-05-11 22:13:00,
2013-05-11 17:14:00,57.1,29.7,30.12,NNW,348,12.0,18.0,35,0.00,,,0.00,585,Wunderground v.1.15,2013-05-11 22:14:00,
2013-05-11 17:16:00,57.1,29.7,30.12,NNW,333,9.0,18.0,35,0.00,,,0.00,573,Wunderground v.1.15,2013-05-11 22:16:00,
2013-05-11 17:18:00,57.0,28.9,30.13,NW,323,21.0,22.0,34,0.00,,,0.00,571,Wunderground v.1.15,2013-05-11 22:18:00,
2013-05-11 17:19:00,57.0,28.9,30.12,NW,317,13.0,22.0,34,0.00,,,0.00,564,Wunderground v.1.15,2013-05-11 22:19:00,
2013-05-11 17:21:00,57.2,31.1,30.12,NNE,26,5.0,12.0,37,0.00,,,0.00,559,Wunderground v.1.15,2013-05-11 22:21:00,
2013-05-11 17:22:00,57.3,31.2,30.12,NNW,331,7.0,12.0,37,0.00,,,0.00,566,Wunderground v.1.15,2013-05-11 22:22:00,
2013-05-11 17:24:00,57.1,28.2,30.12,WNW,291,5.0,16.0,33,0.00,,,0.00,557,Wunderground v.1.15,2013-05-11 22:24:00,
2013-05-11 17:25:00,57.0,28.9,30.12,NW,320,10.0,16.0,34,0.00,,,0.00,548,Wunderground v.1.15,2013-05-11 22:25:00,
2013-05-11 17:26:00,57.0,28.9,30.12,NW,323,11.0,16.0,34,0.00,,,0.00,543,Wunderground v.1.15,2013-05-11 22:26:00,
2013-05-11 17:27:00,57.0,29.6,30.12,NW,322,15.0,16.0,35,0.00,,,0.00,538,Wunderground v.1.15,2013-05-11 22:27:00,
2013-05-11 17:29:00,57.0,29.6,30.12,NW,319,9.0,16.0,35,0.00,,,0.00,531,Wunderground v.1.15,2013-05-11 22:29:00,
2013-05-11 17:30:00,57.1,31.0,30.12,NW,321,6.0,10.0,37,0.00,,,0.00,533,Wunderground v.1.15,2013-05-11 22:30:00,
2013-05-11 17:32:00,57.2,30.5,30.12,NW,315,17.0,18.0,36,0.00,,,0.00,533,Wunderground v.1.15,2013-05-11 22:32:00,
2013-05-11 17:35:00,57.1,29.7,30.12,NW,323,16.0,18.0,35,0.00,,,0.00,524,Wunderground v.1.15,2013-05-11 22:35:00,
2013-05-11 17:36:00,57.1,29.7,30.12,NW,325,18.0,18.0,35,0.00,,,0.00,515,Wunderground v.1.15,2013-05-11 22:36:00,
2013-05-11 17:37:00,57.0,28.9,30.12,NW,323,14.0,18.0,34,0.00,,,0.00,515,Wunderground v.1.15,2013-05-11 22:37:00,
2013-05-11 17:38:00,57.0,28.9,30.12,NW,317,13.0,18.0,34,0.00,,,0.00,510,Wunderground v.1.15,2013-05-11 22:38:00,
2013-05-11 17:41:00,56.7,27.9,30.12,NW,321,23.0,27.0,33,0.00,,,0.00,494,Wunderground v.1.15,2013-05-11 22:41:00,
2013-05-11 17:43:00,56.7,29.3,30.12,NW,311,7.0,27.0,35,0.00,,,0.00,489,Wunderground v.1.15,2013-05-11 22:43:00,
2013-05-11 17:44:00,56.7,30.0,30.12,NNW,340,6.0,27.0,36,0.00,,,0.00,489,Wunderground v.1.15,2013-05-11 22:44:00,
2013-05-11 17:45:00,56.7,30.0,30.12,NNW,330,6.0,27.0,36,0.00,,,0.00,478,Wunderground v.1.15,2013-05-11 22:45:00,
2013-05-11 17:48:00,56.7,28.6,30.12,NW,318,14.0,27.0,34,0.00,,,0.00,476,Wunderground v.1.15,2013-05-11 22:48:00,
2013-05-11 17:50:00,56.7,27.1,30.12,NW,316,19.0,21.0,32,0.00,,,0.00,464,Wunderground v.1.15,2013-05-11 22:50:00,
2013-05-11 17:51:00,56.7,27.9,30.12,NW,325,11.0,21.0,33,0.00,,,0.00,464,Wunderground v.1.15,2013-05-11 22:51:00,
2013-05-11 17:53:00,56.8,28.7,30.12,North,355,12.0,21.0,34,0.00,,,0.00,454,Wunderground v.1.15,2013-05-11 22:53:00,
2013-05-11 17:54:00,56.8,28.7,30.13,NW,323,15.0,21.0,34,0.00,,,0.00,452,Wunderground v.1.15,2013-05-11 22:54:00,
2013-05-11 17:55:00,56.8,27.2,30.12,WNW,301,16.0,24.0,32,0.00,,,0.00,445,Wunderground v.1.15,2013-05-11 22:55:00,
2013-05-11 17:56:00,56.8,27.2,30.12,NW,317,16.0,24.0,32,0.00,,,0.00,445,Wunderground v.1.15,2013-05-11 22:56:00,
2013-05-11 17:59:00,56.7,27.9,30.12,NNW,340,8.0,24.0,33,0.00,,,0.00,443,Wunderground v.1.15,2013-05-11 22:59:00,
2013-05-11 18:00:00,56.8,30.8,30.12,NNW,341,7.0,15.0,37,0.00,,,0.00,431,Wunderground v.1.15,2013-05-11 23:00:00,
2013-05-11 18:02:00,56.8,28.7,30.12,NNW,343,4.0,15.0,34,0.00,,,0.00,424,Wunderground v.1.15,2013-05-11 23:02:00,
2013-05-11 18:04:00,56.7,27.9,30.12,NW,325,6.0,15.0,33,0.00,,,0.00,422,Wunderground v.1.15,2013-05-11 23:04:00,
2013-05-11 18:05:00,56.6,27.8,30.13,NW,315,2.0,15.0,33,0.00,,,0.00,413,Wunderground v.1.15,2013-05-11 23:05:00,
2013-05-11 18:07:00,56.5,27.7,30.12,NNW,335,15.0,15.0,33,0.00,,,0.00,408,Wunderground v.1.15,2013-05-11 23:07:00,
2013-05-11 18:08:00,56.4,26.9,30.12,NNW,327,8.0,15.0,32,0.00,,,0.00,410,Wunderground v.1.15,2013-05-11 23:08:00,
2013-05-11 18:09:00,56.4,28.3,30.13,NW,320,15.0,15.0,34,0.00,,,0.00,401,Wunderground v.1.15,2013-05-11 23:09:00,
2013-05-11 18:10:00,56.4,29.1,30.13,NNW,344,6.0,17.0,35,0.00,,,0.00,401,Wunderground v.1.15,2013-05-11 23:10:00,
2013-05-11 18:11:00,56.4,28.3,30.12,NW,322,9.0,16.0,34,0.00,,,0.00,392,Wunderground v.1.15,2013-05-11 23:11:00,
2013-05-11 18:13:00,56.5,28.4,30.13,NW,321,16.0,16.0,34,0.00,,,0.00,387,Wunderground v.1.15,2013-05-11 23:13:00,
2013-05-11 18:14:00,56.5,28.4,30.13,NW,320,7.0,18.0,34,0.00,,,0.00,381,Wunderground v.1.15,2013-05-11 23:14:00,
2013-05-11 18:15:00,56.4,28.3,30.13,NNW,344,8.0,18.0,34,0.00,,,0.00,381,Wunderground v.1.15,2013-05-11 23:15:00,
2013-05-11 18:16:00,56.4,28.3,30.13,NNW,335,7.0,18.0,34,0.00,,,0.00,373,Wunderground v.1.15,2013-05-11 23:16:00,
2013-05-11 18:17:00,56.2,28.2,30.13,North,355,9.0,18.0,34,0.00,,,0.00,373,Wunderground v.1.15,2013-05-11 23:17:00,
2013-05-11 18:19:00,56.2,28.9,30.13,NNW,329,10.0,18.0,35,0.00,,,0.00,362,Wunderground v.1.15,2013-05-11 23:19:00,
2013-05-11 18:21:00,56.1,28.8,30.13,NW,323,14.0,18.0,35,0.00,,,0.00,357,Wunderground v.1.15,2013-05-11 23:21:00,
2013-05-11 18:22:00,56.1,28.1,30.13,NW,325,9.0,18.0,34,0.00,,,0.00,355,Wunderground v.1.15,2013-05-11 23:22:00,
2013-05-11 18:24:00,56.0,28.0,30.13,NW,317,25.0,25.0,34,0.00,,,0.00,350,Wunderground v.1.15,2013-05-11 23:24:00,
2013-05-11 18:25:00,56.0,27.3,30.13,NW,325,24.0,25.0,33,0.00,,,0.00,350,Wunderground v.1.15,2013-05-11 23:25:00,
2013-05-11 18:26:00,56.0,28.0,30.13,NW,317,15.0,25.0,34,0.00,,,0.00,341,Wunderground v.1.15,2013-05-11 23:26:00,
2013-05-11 18:27:00,55.9,27.2,30.13,NW,317,10.0,25.0,33,0.00,,,0.00,336,Wunderground v.1.15,2013-05-11 23:27:00,
2013-05-11 18:28:00,55.9,27.2,30.13,NW,317,17.0,25.0,33,0.00,,,0.00,332,Wunderground v.1.15,2013-05-11 23:28:00,
2013-05-11 18:30:00,55.8,26.3,30.12,NW,316,13.0,16.0,32,0.00,,,0.00,325,Wunderground v.1.15,2013-05-11 23:30:00,
2013-05-11 18:31:00,55.8,27.8,30.13,North,355,5.0,16.0,34,0.00,,,0.00,325,Wunderground v.1.15,2013-05-11 23:31:00,
2013-05-11 18:33:00,55.8,27.8,30.13,North,5,8.0,16.0,34,0.00,,,0.00,313,Wunderground v.1.15,2013-05-11 23:33:00,
2013-05-11 18:34:00,55.8,27.8,30.13,North,355,4.0,16.0,34,0.00,,,0.00,313,Wunderground v.1.15,2013-05-11 23:34:00,
2013-05-11 18:36:00,55.7,27.7,30.13,NW,308,13.0,16.0,34,0.00,,,0.00,309,Wunderground v.1.15,2013-05-11 23:36:00,
2013-05-11 18:38:00,55.7,27.7,30.12,NNW,327,15.0,21.0,34,0.00,,,0.00,294,Wunderground v.1.15,2013-05-11 23:38:00,
2013-05-11 18:39:00,55.7,27.7,30.12,NW,315,14.0,21.0,34,0.00,,,0.00,292,Wunderground v.1.15,2013-05-11 23:39:00,
2013-05-11 18:42:00,55.7,27.7,30.12,NNW,337,8.0,12.0,34,0.00,,,0.00,287,Wunderground v.1.15,2013-05-11 23:42:00,
2013-05-11 18:44:00,55.6,26.9,30.13,North,355,3.0,12.0,33,0.00,,,0.00,278,Wunderground v.1.15,2013-05-11 23:44:00,
2013-05-11 18:45:00,55.5,27.6,30.13,NNW,336,3.0,12.0,34,0.00,,,0.00,272,Wunderground v.1.15,2013-05-11 23:45:00,
2013-05-11 18:46:00,55.5,26.8,30.13,NW,320,3.0,12.0,33,0.00,,,0.00,269,Wunderground v.1.15,2013-05-11 23:46:00,
2013-05-11 18:47:00,55.5,26.8,30.12,NW,316,15.0,15.0,33,0.00,,,0.00,267,Wunderground v.1.15,2013-05-11 23:47:00,
2013-05-11 18:48:00,55.5,26.8,30.12,NW,313,17.0,17.0,33,0.00,,,0.00,264,Wunderground v.1.15,2013-05-11 23:48:00,
2013-05-11 18:49:00,55.4,26.7,30.12,NNW,331,10.0,17.0,33,0.00,,,0.00,260,Wunderground v.1.15,2013-05-11 23:49:00,
2013-05-11 18:50:00,55.4,26.7,30.12,NNW,345,6.0,8.0,33,0.00,,,0.00,255,Wunderground v.1.15,2013-05-11 23:50:00,
2013-05-11 18:52:00,55.4,26.7,30.12,NW,307,6.0,9.0,33,0.00,,,0.00,250,Wunderground v.1.15,2013-05-11 23:52:00,
2013-05-11 18:53:00,55.4,28.2,30.12,NE,46,7.0,11.0,35,0.00,,,0.00,241,Wunderground v.1.15,2013-05-11 23:53:00,
2013-05-11 18:54:00,55.3,28.1,30.12,ESE,105,4.0,11.0,35,0.00,,,0.00,241,Wunderground v.1.15,2013-05-11 23:54:00,
2013-05-11 18:56:00,55.1,26.5,30.12,NW,319,8.0,11.0,33,0.00,,,0.00,230,Wunderground v.1.15,2013-05-11 23:56:00,
2013-05-11 18:57:00,55.1,26.5,30.12,NNW,331,3.0,11.0,33,0.00,,,0.00,230,Wunderground v.1.15,2013-05-11 23:57:00,
2013-05-11 18:59:00,55.0,28.5,30.12,North,350,4.0,11.0,36,0.00,,,0.00,229,Wunderground v.1.15,2013-05-11 23:59:00,
2013-05-11 19:01:00,55.0,27.8,30.12,NNE,14,6.0,6.0,35,0.00,,,0.00,211,Wunderground v.1.15,2013-05-12 00:01:00,
2013-05-11 19:03:00,55.0,28.5,30.12,NNW,327,7.0,8.0,36,0.00,,,0.00,204,Wunderground v.1.15,2013-05-12 00:03:00,
2013-05-11 19:05:00,54.9,26.3,30.12,WNW,300,17.0,17.0,33,0.00,,,0.00,197,Wunderground v.1.15,2013-05-12 00:05:00,
2013-05-11 19:07:00,54.9,26.3,30.13,NNW,335,8.0,17.0,33,0.00,,,0.00,190,Wunderground v.1.15,2013-05-12 00:07:00,
2013-05-11 19:09:00,54.8,27.6,30.12,NW,304,13.0,17.0,35,0.00,,,0.00,179,Wunderground v.1.15,2013-05-12 00:09:00,
2013-05-11 19:10:00,54.8,26.2,30.12,NW,323,12.0,12.0,33,0.00,,,0.00,176,Wunderground v.1.15,2013-05-12 00:10:00,
2013-05-11 19:11:00,54.8,28.3,30.12,NNW,346,5.0,14.0,36,0.00,,,0.00,172,Wunderground v.1.15,2013-05-12 00:11:00,
2013-05-11 19:12:00,54.8,28.3,30.12,NNW,329,8.0,14.0,36,0.00,,,0.00,172,Wunderground v.1.15,2013-05-12 00:12:00,
2013-05-11 19:15:00,54.7,28.2,30.12,NNE,32,6.0,14.0,36,0.00,,,0.00,156,Wunderground v.1.15,2013-05-12 00:15:00,
2013-05-11 19:16:00,54.6,26.8,30.12,NNW,346,7.0,14.0,34,0.00,,,0.00,148,Wunderground v.1.15,2013-05-12 00:16:00,
2013-05-11 19:17:00,54.6,26.0,30.12,WNW,302,5.0,14.0,33,0.00,,,0.00,148,Wunderground v.1.15,2013-05-12 00:17:00,
2013-05-11 19:18:00,54.5,26.0,30.13,NW,315,6.0,14.0,33,0.00,,,0.00,144,Wunderground v.1.15,2013-05-12 00:18:00,
2013-05-11 19:21:00,54.4,26.6,30.13,NNW,329,14.0,14.0,34,0.00,,,0.00,132,Wunderground v.1.15,2013-05-12 00:21:00,
2013-05-11 19:22:00,54.4,25.9,30.13,NW,326,8.0,16.0,33,0.00,,,0.00,130,Wunderground v.1.15,2013-05-12 00:22:00,
2013-05-11 19:23:00,54.3,26.5,30.13,NNW,338,4.0,16.0,34,0.00,,,0.00,127,Wunderground v.1.15,2013-05-12 00:23:00,
2013-05-11 19:24:00,54.3,26.5,30.13,North,9,8.0,16.0,34,0.00,,,0.00,123,Wunderground v.1.15,2013-05-12 00:24:00,
2013-05-11 19:26:00,54.1,24.9,30.13,NW,321,13.0,16.0,32,0.00,,,0.00,121,Wunderground v.1.15,2013-05-12 00:26:00,
2013-05-11 19:27:00,54.1,27.0,30.13,NW,320,7.0,16.0,35,0.00,,,0.00,113,Wunderground v.1.15,2013-05-12 00:27:00,
2013-05-11 19:29:00,54.0,26.2,30.13,NW,325,5.0,16.0,34,0.00,,,0.00,105,Wunderground v.1.15,2013-05-12 00:29:00,
2013-05-11 19:31:00,53.9,26.8,30.13,NNW,334,7.0,11.0,35,0.00,,,0.00,97,Wunderground v.1.15,2013-05-12 00:31:00,
2013-05-11 19:32:00,53.9,26.8,30.13,NW,325,6.0,16.0,35,0.00,,,0.00,95,Wunderground v.1.15,2013-05-12 00:32:00,
2013-05-11 19:35:00,53.8,24.6,30.13,NW,322,6.0,16.0,32,0.00,,,0.00,86,Wunderground v.1.15,2013-05-12 00:35:00,
2013-05-11 19:36:00,53.8,25.3,30.13,NW,319,9.0,16.0,33,0.00,,,0.00,84,Wunderground v.1.15,2013-05-12 00:36:00,
2013-05-11 19:37:00,53.7,26.0,30.13,NNW,330,8.0,16.0,34,0.00,,,0.00,84,Wunderground v.1.15,2013-05-12 00:37:00,
2013-05-11 19:41:00,53.6,25.2,30.13,NNW,348,3.0,11.0,33,0.00,,,0.00,69,Wunderground v.1.15,2013-05-12 00:41:00,
2013-05-11 19:42:00,53.5,25.8,30.13,NW,323,7.0,12.0,34,0.00,,,0.00,69,Wunderground v.1.15,2013-05-12 00:42:00,
2013-05-11 19:43:00,53.4,26.4,30.13,NNW,340,2.0,12.0,35,0.00,,,0.00,62,Wunderground v.1.15,2013-05-12 00:43:00,
2013-05-11 19:45:00,53.3,25.6,30.13,NNW,333,6.0,12.0,34,0.00,,,0.00,56,Wunderground v.1.15,2013-05-12 00:45:00,
2013-05-11 19:47:00,53.1,28.1,30.13,NW,313,7.0,12.0,38,0.00,,,0.00,51,Wunderground v.1.15,2013-05-12 00:47:00,
2013-05-11 19:48:00,53.1,26.8,30.13,NNW,327,7.0,12.0,36,0.00,,,0.00,51,Wunderground v.1.15,2013-05-12 00:48:00,
2013-05-11 19:49:00,53.0,26.7,30.13,NNW,343,5.0,12.0,36,0.00,,,0.00,49,Wunderground v.1.15,2013-05-12 00:49:00,
2013-05-11 19:50:00,53.0,26.0,30.13,NNW,335,7.0,12.0,35,0.00,,,0.00,44,Wunderground v.1.15,2013-05-12 00:50:00,
2013-05-11 19:53:00,52.8,27.2,30.13,NNW,340,4.0,8.0,37,0.00,,,0.00,39,Wunderground v.1.15,2013-05-12 00:53:00,
2013-05-11 19:54:00,52.6,25.7,30.13,NNW,348,7.0,12.0,35,0.00,,,0.00,35,Wunderground v.1.15,2013-05-12 00:54:00,
2013-05-11 19:56:00,52.6,25.7,30.13,NNW,336,1.0,12.0,35,0.00,,,0.00,32,Wunderground v.1.15,2013-05-12 00:56:00,
2013-05-11 19:58:00,52.4,26.2,30.13,NW,322,4.0,12.0,36,0.00,,,0.00,28,Wunderground v.1.15,2013-05-12 00:58:00,
2013-05-11 19:59:00,52.3,26.1,30.13,NNW,346,6.0,12.0,36,0.00,,,0.00,28,Wunderground v.1.15,2013-05-12 00:59:00,
2013-05-11 20:00:00,52.2,26.7,30.13,NW,321,4.0,12.0,37,0.00,,,0.00,26,Wunderground v.1.15,2013-05-12 01:00:00,
2013-05-11 20:01:00,52.2,26.7,30.13,NW,317,2.0,8.0,37,0.00,,,0.00,25,Wunderground v.1.15,2013-05-12 01:01:00,
2013-05-11 20:02:00,52.1,26.6,30.13,NNW,340,1.0,8.0,37,0.00,,,0.00,23,Wunderground v.1.15,2013-05-12 01:02:00,
2013-05-11 20:03:00,52.0,25.8,30.13,North,350,2.0,8.0,36,0.00,,,0.00,21,Wunderground v.1.15,2013-05-12 01:03:00,
2013-05-11 20:06:00,51.8,26.3,30.13,NW,316,5.0,8.0,37,0.00,,,0.00,18,Wunderground v.1.15,2013-05-12 01:06:00,
2013-05-11 20:07:00,51.7,25.6,30.13,NW,315,3.0,8.0,36,0.00,,,0.00,16,Wunderground v.1.15,2013-05-12 01:07:00,
2013-05-11 20:09:00,51.6,26.1,30.13,NW,321,5.0,8.0,37,0.00,,,0.00,16,Wunderground v.1.15,2013-05-12 01:09:00,
2013-05-11 20:11:00,51.4,26.0,30.13,NNW,331,4.0,7.0,37,0.00,,,0.00,14,Wunderground v.1.15,2013-05-12 01:11:00,
2013-05-11 20:14:00,51.2,26.4,30.13,North,5,2.0,7.0,38,0.00,,,0.00,11,Wunderground v.1.15,2013-05-12 01:14:00,
2013-05-11 20:16:00,51.1,25.0,30.13,North,355,5.0,7.0,36,0.00,,,0.00,11,Wunderground v.1.15,2013-05-12 01:16:00,
2013-05-11 20:17:00,51.0,25.6,30.13,NW,312,3.0,7.0,37,0.00,,,0.00,9,Wunderground v.1.15,2013-05-12 01:17:00,
2013-05-11 20:18:00,51.0,25.6,30.13,NNE,24,6.0,7.0,37,0.00,,,0.00,9,Wunderground v.1.15,2013-05-12 01:18:00,
2013-05-11 20:20:00,50.9,25.5,30.13,NNW,336,3.0,8.0,37,0.00,,,0.00,9,Wunderground v.1.15,2013-05-12 01:20:00,
2013-05-11 20:23:00,50.8,26.1,30.13,NNW,329,5.0,5.0,38,0.00,,,0.00,7,Wunderground v.1.15,2013-05-12 01:23:00,
2013-05-11 20:25:00,50.6,27.1,30.14,North,5,1.0,7.0,40,0.00,,,0.00,5,Wunderground v.1.15,2013-05-12 01:25:00,
2013-05-11 20:26:00,50.6,26.5,30.14,NNW,344,2.0,7.0,39,0.00,,,0.00,5,Wunderground v.1.15,2013-05-12 01:26:00,
2013-05-11 20:28:00,50.4,26.3,30.13,NW,310,2.0,7.0,39,0.00,,,0.00,0,Wunderground v.1.15,2013-05-12 01:28:00,
2013-05-11 20:29:00,50.3,25.6,30.13,NNW,340,1.0,7.0,38,0.00,,,0.00,0,Wunderground v.1.15,2013-05-12 01:29:00,
2013-05-11 20:30:00,50.3,25.6,30.13,NNE,16,3.0,7.0,38,0.00,,,0.00,0,Wunderground v.1.15,2013-05-12 01:30:00,
2013-05-11 20:34:00,50.3,26.3,30.14,NNE,22,0.0,4.0,39,0.00,,,0.00,0,Wunderground v.1.15,2013-05-12 01:34:00,
2013-05-11 20:36:00,50.2,25.5,30.14,NW,322,7.0,7.0,38,0.00,,,0.00,0,Wunderground v.1.15,2013-05-12 01:36:00,
2013-05-11 20:38:00,50.1,26.1,30.14,NNW,327,1.0,8.0,39,0.00,,,0.00,0,Wunderground v.1.15,2013-05-12 01:38:00,
2013-05-11 20:40:00,50.0,26.6,30.14,NNW,331,0.0,8.0,40,0.00,,,0.00,0,Wunderground v.1.15,2013-05-12 01:40:00,
2013-05-11 20:42:00,49.8,25.8,30.14,NNW,331,3.0,3.0,39,0.00,,,0.00,0,Wunderground v.1.15,2013-05-12 01:42:00,
2013-05-11 20:43:00,49.8,26.4,30.14,NNW,331,0.0,3.0,40,0.00,,,0.00,0,Wunderground v.1.15,2013-05-12 01:43:00,
2013-05-11 20:44:00,49.7,25.7,30.14,NNW,348,6.0,6.0,39,0.00,,,0.00,0,Wunderground v.1.15,2013-05-12 01:44:00,
2013-05-11 20:45:00,49.7,25.1,30.14,NNW,344,3.0,6.0,38,0.00,,,0.00,0,Wunderground v.1.15,2013-05-12 01:45:00,
2013-05-11 20:48:00,49.6,25.6,30.14,NW,321,1.0,6.0,39,0.00,,,0.00,0,Wunderground v.1.15,2013-05-12 01:48:00,
2013-05-11 20:49:00,49.5,26.1,30.14,NW,321,0.0,6.0,40,0.00,,,0.00,0,Wunderground v.1.15,2013-05-12 01:49:00,
2013-05-11 20:50:00,49.4,26.1,30.14,NW,320,0.0,2.0,40,0.00,,,0.00,0,Wunderground v.1.15,2013-05-12 01:50:00,
2013-05-11 20:51:00,49.4,25.4,30.14,NE,53,5.0,5.0,39,0.00,,,0.00,0,Wunderground v.1.15,2013-05-12 01:51:00,
2013-05-11 20:53:00,49.2,25.9,30.14,NNW,330,1.0,5.0,40,0.00,,,0.00,0,Wunderground v.1.15,2013-05-12 01:53:00,
2013-05-11 20:54:00,49.2,26.5,30.14,NNW,328,0.0,5.0,41,0.00,,,0.00,0,Wunderground v.1.15,2013-05-12 01:54:00,
2013-05-11 20:55:00,49.2,25.9,30.14,NNW,329,0.0,5.0,40,0.00,,,0.00,0,Wunderground v.1.15,2013-05-12 01:55:00,
2013-05-11 20:57:00,49.1,25.2,30.14,NNE,25,3.0,5.0,39,0.00,,,0.00,0,Wunderground v.1.15,2013-05-12 01:57:00,
2013-05-11 20:58:00,49.1,25.8,30.14,NW,304,0.0,5.0,40,0.00,,,0.00,0,Wunderground v.1.15,2013-05-12 01:58:00,
2013-05-11 20:59:00,49.2,25.9,30.14,NW,304,0.0,5.0,40,0.00,,,0.00,0,Wunderground v.1.15,2013-05-12 01:59:00,
2013-05-11 21:00:00,49.0,25.7,30.14,NW,313,2.0,2.0,40,0.00,,,0.00,0,Wunderground v.1.15,2013-05-12 02:00:00,
2013-05-11 21:03:00,48.7,26.6,30.14,NW,313,0.0,2.0,42,0.00,,,0.00,0,Wunderground v.1.15,2013-05-12 02:03:00,
2013-05-11 21:04:00,48.6,25.9,30.14,NW,323,1.0,2.0,41,0.00,,,0.00,0,Wunderground v.1.15,2013-05-12 02:04:00,
2013-05-11 21:05:00,48.5,27.0,30.14,NW,323,1.0,2.0,43,0.00,,,0.00,0,Wunderground v.1.15,2013-05-12 02:05:00,
2013-05-11 21:06:00,48.3,26.8,30.14,NW,323,0.0,2.0,43,0.00,,,0.00,0,Wunderground v.1.15,2013-05-12 02:06:00,
2013-05-11 21:09:00,48.2,25.6,30.15,NNW,330,1.0,3.0,41,0.00,,,0.00,0,Wunderground v.1.15,2013-05-12 02:09:00,
2013-05-11 21:10:00,48.2,25.6,30.15,NNE,33,1.0,3.0,41,0.00,,,0.00,0,Wunderground v.1.15,2013-05-12 02:10:00,
2013-05-11 21:11:00,48.2,25.6,30.14,NW,309,0.0,0.0,41,0.00,,,0.00,0,Wunderground v.1.15,2013-05-12 02:11:00,
2013-05-11 21:15:00,47.9,27.0,30.15,WNW,302,0.0,3.0,44,0.00,,,0.00,0,Wunderground v.1.15,2013-05-12 02:15:00,
2013-05-11 21:16:00,47.9,26.5,30.15,WNW,303,1.0,3.0,43,0.00,,,0.00,0,Wunderground v.1.15,2013-05-12 02:16:00,
2013-05-11 21:17:00,47.8,26.4,30.15,WNW,303,0.0,3.0,43,0.00,,,0.00,0,Wunderground v.1.15,2013-05-12 02:17:00,
2013-05-11 21:18:00,47.8,26.4,30.15,North,5,1.0,3.0,43,0.00,,,0.00,0,Wunderground v.1.15,2013-05-12 02:18:00,
2013-05-11 21:19:00,47.7,27.4,30.15,North,355,0.0,3.0,45,0.00,,,0.00,0,Wunderground v.1.15,2013-05-12 02:19:00,
2013-05-11 21:21:00,47.5,27.2,30.15,NNW,338,2.0,2.0,45,0.00,,,0.00,0,Wunderground v.1.15,2013-05-12 02:21:00,
2013-05-11 21:22:00,47.4,27.1,30.15,North,360,0.0,5.0,45,0.00,,,0.00,0,Wunderground v.1.15,2013-05-12 02:22:00,
2013-05-11 21:23:00,47.4,27.1,30.15,NNW,346,0.0,5.0,45,0.00,,,0.00,0,Wunderground v.1.15,2013-05-12 02:23:00,
2013-05-11 21:25:00,47.3,28.1,30.15,NNW,344,1.0,5.0,47,0.00,,,0.00,0,Wunderground v.1.15,2013-05-12 02:25:00,
2013-05-11 21:27:00,47.2,26.9,30.15,NW,318,1.0,6.0,45,0.00,,,0.00,0,Wunderground v.1.15,2013-05-12 02:27:00,
2013-05-11 21:28:00,47.3,27.5,30.15,NW,318,4.0,6.0,46,0.00,,,0.00,0,Wunderground v.1.15,2013-05-12 02:28:00,
2013-05-11 21:29:00,47.3,28.6,30.15,NW,318,1.0,6.0,48,0.00,,,0.00,0,Wunderground v.1.15,2013-05-12 02:29:00,
2013-05-11 21:31:00,47.2,27.5,30.15,NNW,329,2.0,2.0,46,0.00,,,0.00,0,Wunderground v.1.15,2013-05-12 02:31:00,
2013-05-11 21:33:00,47.3,27.0,30.15,NNW,327,1.0,4.0,45,0.00,,,0.00,0,Wunderground v.1.15,2013-05-12 02:33:00,
2013-05-11 21:34:00,47.3,27.0,30.15,North,355,3.0,4.0,45,0.00,,,0.00,0,Wunderground v.1.15,2013-05-12 02:34:00,
2013-05-11 21:35:00,47.3,27.0,30.15,NW,323,4.0,4.0,45,0.00,,,0.00,0,Wunderground v.1.15,2013-05-12 02:35:00,
2013-05-11 21:38:00,47.3,27.0,30.15,NW,315,1.0,5.0,45,0.00,,,0.00,0,Wunderground v.1.15,2013-05-12 02:38:00,
2013-05-11 21:39:00,47.3,27.0,30.15,NW,315,0.0,5.0,45,0.00,,,0.00,0,Wunderground v.1.15,2013-05-12 02:39:00,
2013-05-11 21:40:00,47.2,26.9,30.15,NW,315,3.0,3.0,45,0.00,,,0.00,0,Wunderground v.1.15,2013-05-12 02:40:00,
2013-05-11 21:41:00,47.2,26.9,30.15,NW,315,0.0,3.0,45,0.00,,,0.00,0,Wunderground v.1.15,2013-05-12 02:41:00,
2013-05-11 21:44:00,46.9,27.2,30.15,NW,320,1.0,4.0,46,0.00,,,0.00,0,Wunderground v.1.15,2013-05-12 02:44:00,
2013-05-11 21:45:00,46.9,26.6,30.16,NNW,327,3.0,4.0,45,0.00,,,0.00,0,Wunderground v.1.15,2013-05-12 02:45:00,
2013-05-11 21:46:00,46.9,27.2,30.15,NW,315,2.0,4.0,46,0.00,,,0.00,0,Wunderground v.1.15,2013-05-12 02:46:00,
2013-05-11 21:50:00,46.8,27.6,30.16,NW,307,4.0,4.0,47,0.00,,,0.00,0,Wunderground v.1.15,2013-05-12 02:50:00,
2013-05-11 21:52:00,46.9,26.6,30.16,NW,312,1.0,4.0,45,0.00,,,0.00,0,Wunderground v.1.15,2013-05-12 02:52:00,
2013-05-11 21:53:00,46.9,27.2,30.15,North,360,0.0,4.0,46,0.00,,,0.00,0,Wunderground v.1.15,2013-05-12 02:53:00,
2013-05-11 21:55:00,46.9,27.2,30.16,NNW,328,1.0,4.0,46,0.00,,,0.00,0,Wunderground v.1.15,2013-05-12 02:55:00,
2013-05-11 21:57:00,46.8,27.1,30.16,NW,324,3.0,5.0,46,0.00,,,0.00,0,Wunderground v.1.15,2013-05-12 02:57:00,
2013-05-11 21:58:00,46.8,27.6,30.16,NNW,346,2.0,5.0,47,0.00,,,0.00,0,Wunderground v.1.15,2013-05-12 02:58:00,
2013-05-11 22:00:00,46.8,27.6,30.16,NNW,342,0.0,5.0,47,0.00,,,0.00,0,Wunderground v.1.15,2013-05-12 03:00:00,
2013-05-11 22:02:00,46.7,27.5,30.16,NNW,331,3.0,3.0,47,0.00,,,0.00,0,Wunderground v.1.15,2013-05-12 03:02:00,
2013-05-11 22:03:00,46.6,27.4,30.16,NNW,331,1.0,3.0,47,0.00,,,0.00,0,Wunderground v.1.15,2013-05-12 03:03:00,
2013-05-11 22:05:00,46.6,27.4,30.16,NNW,329,3.0,3.0,47,0.00,,,0.00,0,Wunderground v.1.15,2013-05-12 03:05:00,
2013-05-11 22:08:00,46.4,27.2,30.16,NNW,337,1.0,5.0,47,0.00,,,0.00,0,Wunderground v.1.15,2013-05-12 03:08:00,
2013-05-11 22:09:00,46.4,27.2,30.16,NNW,337,0.0,5.0,47,0.00,,,0.00,0,Wunderground v.1.15,2013-05-12 03:09:00,
2013-05-11 22:10:00,46.2,27.6,30.16,NNW,334,0.0,1.0,48,0.00,,,0.00,0,Wunderground v.1.15,2013-05-12 03:10:00,
2013-05-11 22:12:00,46.0,27.4,30.16,NNW,334,2.0,2.0,48,0.00,,,0.00,0,Wunderground v.1.15,2013-05-12 03:12:00,
2013-05-11 22:14:00,45.9,26.8,30.16,NNW,334,0.0,2.0,47,0.00,,,0.00,0,Wunderground v.1.15,2013-05-12 03:14:00,
2013-05-11 22:15:00,45.9,26.8,30.16,NNW,334,2.0,2.0,47,0.00,,,0.00,0,Wunderground v.1.15,2013-05-12 03:15:00,
2013-05-11 22:16:00,45.9,26.8,30.16,NNW,334,0.0,2.0,47,0.00,,,0.00,0,Wunderground v.1.15,2013-05-12 03:16:00,
2013-05-11 22:19:00,45.8,27.2,30.16,NNW,348,0.0,2.0,48,0.00,,,0.00,0,Wunderground v.1.15,2013-05-12 03:19:00,
2013-05-11 22:20:00,45.8,27.2,30.16,NNW,348,2.0,2.0,48,0.00,,,0.00,0,Wunderground v.1.15,2013-05-12 03:20:00,
2013-05-11 22:21:00,45.8,27.2,30.16,NW,304,0.0,3.0,48,0.00,,,0.00,0,Wunderground v.1.15,2013-05-12 03:21:00,
2013-05-11 22:23:00,45.9,27.3,30.16,NNW,329,0.0,4.0,48,0.00,,,0.00,0,Wunderground v.1.15,2013-05-12 03:23:00,
2013-05-11 22:26:00,45.8,28.2,30.16,NNW,328,0.0,4.0,50,0.00,,,0.00,0,Wunderground v.1.15,2013-05-12 03:26:00,
2013-05-11 22:27:00,45.7,28.1,30.16,NNW,328,2.0,4.0,50,0.00,,,0.00,0,Wunderground v.1.15,2013-05-12 03:27:00,
2013-05-11 22:28:00,45.5,27.9,30.16,NNW,328,0.0,4.0,50,0.00,,,0.00,0,Wunderground v.1.15,2013-05-12 03:28:00,
2013-05-11 22:29:00,45.4,28.3,30.16,NNW,328,1.0,4.0,51,0.00,,,0.00,0,Wunderground v.1.15,2013-05-12 03:29:00,
2013-05-11 22:31:00,45.2,28.1,30.16,NNW,328,1.0,2.0,51,0.00,,,0.00,0,Wunderground v.1.15,2013-05-12 03:31:00,
2013-05-11 22:35:00,45.0,27.9,30.16,NW,325,2.0,2.0,51,0.00,,,0.00,0,Wunderground v.1.15,2013-05-12 03:35:00,
2013-05-11 22:36:00,45.0,27.9,30.16,NW,325,2.0,2.0,51,0.00,,,0.00,0,Wunderground v.1.15,2013-05-12 03:36:00,
2013-05-11 22:37:00,45.0,27.9,30.16,NW,325,0.0,2.0,51,0.00,,,0.00,0,Wunderground v.1.15,2013-05-12 03:37:00,
2013-05-11 22:40:00,45.0,28.4,30.16,NW,325,0.0,3.0,52,0.00,,,0.00,0,Wunderground v.1.15,2013-05-12 03:40:00,
2013-05-11 22:42:00,44.9,28.8,30.16,NW,325,2.0,4.0,53,0.00,,,0.00,0,Wunderground v.1.15,2013-05-12 03:42:00,
2013-05-11 22:43:00,44.8,28.7,30.16,NW,325,1.0,4.0,53,0.00,,,0.00,0,Wunderground v.1.15,2013-05-12 03:43:00,
2013-05-11 22:45:00,44.5,28.9,30.16,NW,324,1.0,4.0,54,0.00,,,0.00,0,Wunderground v.1.15,2013-05-12 03:45:00,
2013-05-11 22:46:00,44.4,28.8,30.16,NW,324,3.0,4.0,54,0.00,,,0.00,0,Wunderground v.1.15,2013-05-12 03:46:00,
2013-05-11 22:48:00,44.4,29.2,30.16,NW,324,2.0,4.0,55,0.00,,,0.00,0,Wunderground v.1.15,2013-05-12 03:48:00,
2013-05-11 22:49:00,44.3,29.6,30.16,NW,324,3.0,4.0,56,0.00,,,0.00,0,Wunderground v.1.15,2013-05-12 03:49:00,
2013-05-11 22:52:00,44.2,29.9,30.16,NW,324,2.0,2.0,57,0.00,,,0.00,0,Wunderground v.1.15,2013-05-12 03:52:00,
2013-05-11 22:55:00,43.8,30.0,30.16,NW,324,2.0,4.0,58,0.00,,,0.00,0,Wunderground v.1.15,2013-05-12 03:55:00,
2013-05-11 22:56:00,43.7,29.9,30.16,NW,324,0.0,4.0,58,0.00,,,0.00,0,Wunderground v.1.15,2013-05-12 03:56:00,
2013-05-11 22:58:00,43.3,30.7,30.16,NW,324,1.0,4.0,61,0.00,,,0.00,0,Wunderground v.1.15,2013-05-12 03:58:00,
2013-05-11 23:00:00,42.9,30.4,30.16,NW,324,0.0,1.0,61,0.00,,,0.00,0,Wunderground v.1.15,2013-05-12 04:00:00,
2013-05-11 23:01:00,42.9,30.4,30.16,NW,324,0.0,1.0,61,0.00,,,0.00,0,Wunderground v.1.15,2013-05-12 04:01:00,
2013-05-11 23:04:00,42.5,30.8,30.16,NW,324,2.0,3.0,63,0.00,,,0.00,0,Wunderground v.1.15,2013-05-12 04:04:00,
2013-05-11 23:06:00,42.5,31.2,30.16,NW,324,2.0,3.0,64,0.00,,,0.00,0,Wunderground v.1.15,2013-05-12 04:06:00,
2013-05-11 23:08:00,42.5,31.2,30.16,NW,324,2.0,3.0,64,0.00,,,0.00,0,Wunderground v.1.15,2013-05-12 04:08:00,
2013-05-11 23:09:00,42.5,31.2,30.16,NW,324,2.0,3.0,64,0.00,,,0.00,0,Wunderground v.1.15,2013-05-12 04:09:00,
2013-05-11 23:10:00,42.4,31.1,30.16,NW,324,2.0,2.0,64,0.00,,,0.00,0,Wunderground v.1.15,2013-05-12 04:10:00,
2013-05-11 23:12:00,42.3,31.4,30.16,NW,324,0.0,2.0,65,0.00,,,0.00,0,Wunderground v.1.15,2013-05-12 04:12:00,
2013-05-11 23:13:00,42.2,31.3,30.16,NW,324,0.0,2.0,65,0.00,,,0.00,0,Wunderground v.1.15,2013-05-12 04:13:00,
2013-05-11 23:14:00,42.2,31.3,30.16,NW,324,0.0,2.0,65,0.00,,,0.00,0,Wunderground v.1.15,2013-05-12 04:14:00,
2013-05-11 23:15:00,41.9,31.4,30.16,NW,324,0.0,2.0,66,0.00,,,0.00,0,Wunderground v.1.15,2013-05-12 04:15:00,
2013-05-11 23:18:00,41.6,31.4,30.16,NW,324,0.0,2.0,67,0.00,,,0.00,0,Wunderground v.1.15,2013-05-12 04:18:00,
2013-05-11 23:19:00,41.6,31.8,30.16,NW,324,0.0,2.0,68,0.00,,,0.00,0,Wunderground v.1.15,2013-05-12 04:19:00,
2013-05-11 23:20:00,41.5,31.4,30.16,NW,324,0.0,0.0,67,0.00,,,0.00,0,Wunderground v.1.15,2013-05-12 04:20:00,
2013-05-11 23:21:00,41.5,31.4,30.16,NW,324,0.0,0.0,67,0.00,,,0.00,0,Wunderground v.1.15,2013-05-12 04:21:00,
2013-05-11 23:24:00,41.5,31.4,30.16,NW,324,0.0,0.0,67,0.00,,,0.00,0,Wunderground v.1.15,2013-05-12 04:24:00,
2013-05-11 23:25:00,41.5,31.4,30.16,NW,324,0.0,0.0,67,0.00,,,0.00,0,Wunderground v.1.15,2013-05-12 04:25:00,
2013-05-11 23:26:00,41.4,31.6,30.16,NW,324,0.0,0.0,68,0.00,,,0.00,0,Wunderground v.1.15,2013-05-12 04:26:00,
2013-05-11 23:29:00,41.3,32.2,30.16,NW,324,0.0,0.0,70,0.00,,,0.00,0,Wunderground v.1.15,2013-05-12 04:29:00,
2013-05-11 23:30:00,41.1,32.1,30.16,NW,324,0.0,0.0,70,0.00,,,0.00,0,Wunderground v.1.15,2013-05-12 04:30:00,
2013-05-11 23:32:00,40.9,31.1,30.16,NW,324,0.0,0.0,68,0.00,,,0.00,0,Wunderground v.1.15,2013-05-12 04:32:00,
2013-05-11 23:35:00,41.0,31.6,30.16,NW,324,0.0,0.0,69,0.00,,,0.00,0,Wunderground v.1.15,2013-05-12 04:35:00,
2013-05-11 23:36:00,41.0,31.6,30.16,NW,324,0.0,0.0,69,0.00,,,0.00,0,Wunderground v.1.15,2013-05-12 04:36:00,
2013-05-11 23:37:00,41.0,31.6,30.16,NW,324,0.0,0.0,69,0.00,,,0.00,0,Wunderground v.1.15,2013-05-12 04:37:00,
2013-05-11 23:38:00,41.0,31.6,30.16,NW,324,0.0,0.0,69,0.00,,,0.00,0,Wunderground v.1.15,2013-05-12 04:38:00,
2013-05-11 23:41:00,40.8,31.4,30.17,NW,324,0.0,0.0,69,0.00,,,0.00,0,Wunderground v.1.15,2013-05-12 04:41:00,
2013-05-11 23:43:00,40.6,31.6,30.17,NW,324,0.0,0.0,70,0.00,,,0.00,0,Wunderground v.1.15,2013-05-12 04:43:00,
2013-05-11 23:44:00,40.4,31.4,30.17,NW,324,0.0,0.0,70,0.00,,,0.00,0,Wunderground v.1.15,2013-05-12 04:44:00,
2013-05-11 23:45:00,40.4,31.7,30.17,NW,324,0.0,0.0,71,0.00,,,0.00,0,Wunderground v.1.15,2013-05-12 04:45:00,
2013-05-11 23:46:00,40.3,31.6,30.17,NW,324,0.0,0.0,71,0.00,,,0.00,0,Wunderground v.1.15,2013-05-12 04:46:00,
2013-05-11 23:48:00,40.1,31.8,30.17,NW,324,0.0,0.0,72,0.00,,,0.00,0,Wunderground v.1.15,2013-05-12 04:48:00,
2013-05-11 23:50:00,40.0,31.7,30.17,NW,324,0.0,0.0,72,0.00,,,0.00,0,Wunderground v.1.15,2013-05-12 04:50:00,
2013-05-11 23:51:00,40.0,31.7,30.17,NW,324,0.0,0.0,72,0.00,,,0.00,0,Wunderground v.1.15,2013-05-12 04:51:00,
2013-05-11 23:53:00,40.0,31.7,30.17,NW,324,0.0,0.0,72,0.00,,,0.00,0,Wunderground v.1.15,2013-05-12 04:53:00,
2013-05-11 23:57:00,40.1,31.4,30.17,NW,324,2.0,3.0,71,0.00,,,0.00,0,Wunderground v.1.15,2013-05-12 04:57:00,
2013-05-11 23:58:00,40.1,31.8,30.16,NW,324,2.0,3.0,72,0.00,,,0.00,0,Wunderground v.1.15,2013-05-12 04:58:00,
2013-05-11 23:59:00,40.1,31.8,30.16,NW,324,2.0,3.0,72,0.00,,,0.00,0,Wunderground v.1.15,2013-05-12 04:59:00,